CW5983 Weather Reports


Display with metric or nautical units.
time (UTC)temp
F
wind
direction
speed
MPH
gust
MPH
rain 1hr
in
rain 24hr
in
rain mn
in
humidity
%
barometer
mb
20220703180008 104 323 9.0 10.0 0.00 0.00 0.00 22 995.0
20220703175908 104 304 8.0 12.0 0.00 0.00 0.00 23 995.0
20220703175805 104 305 4.0 12.0 0.00 0.00 0.00 23 995.0
20220703175704 104 324 6.0 12.0 0.00 0.00 0.00 23 995.0
20220703175605 104 292 5.0 12.0 0.00 0.00 0.00 23 995.0
20220703175508 104 271 7.0 12.0 0.00 0.00 0.00 24 995.0
20220703175406 104 313 4.0 12.0 0.00 0.00 0.00 23 995.0
20220703175304 104 335 6.0 12.0 0.00 0.00 0.00 22 995.0
20220703175204 103 281 6.0 12.0 0.00 0.00 0.00 23 995.0
20220703175108 103 288 5.0 12.0 0.00 0.00 0.00 23 994.8
20220703175006 103 301 5.0 11.0 0.00 0.00 0.00 23 995.0
20220703174904 102 295 7.0 9.0 0.00 0.00 0.00 25 994.9
20220703174804 102 339 4.0 9.0 0.00 0.00 0.00 25 994.9
20220703174707 102 318 5.0 9.0 0.00 0.00 0.00 27 994.9
20220703174607 102 321 3.0 9.0 0.00 0.00 0.00 28 994.9
20220703174506 102 304 7.0 9.0 0.00 0.00 0.00 30 994.9
20220703174405 102 306 1.0 9.0 0.00 0.00 0.00 32 994.9
20220703174304 101 317 2.0 9.0 0.00 0.00 0.00 32 994.9
20220703174208 101 321 4.0 8.0 0.00 0.00 0.00 32 994.9
20220703174107 101 323 3.0 8.0 0.00 0.00 0.00 32 994.9
20220703174006 101 318 5.0 8.0 0.00 0.00 0.00 32 994.9
20220703173906 101 328 5.0 8.0 0.00 0.00 0.00 32 995.0
20220703173804 100 326 8.0 8.0 0.00 0.00 0.00 31 994.9
20220703173708 100 319 6.0 8.0 0.00 0.00 0.00 34 994.8
20220703173604 100 315 3.0 8.0 0.00 0.00 0.00 33 994.9
20220703173505 100 314 2.0 10.0 0.00 0.00 0.00 33 994.9
20220703173407 100 307 2.0 10.0 0.00 0.00 0.00 35 994.9
20220703173305 100 300 3.0 10.0 0.00 0.00 0.00 38 994.9
20220703173204 100 315 3.0 10.0 0.00 0.00 0.00 38 995.0
20220703173104 100 313 3.0 10.0 0.00 0.00 0.00 39 994.9
20220703173010 101 313 2.0 10.0 0.00 0.00 0.00 38 994.9
20220703172905 101 312 4.0 10.0 0.00 0.00 0.00 39 994.9
20220703172804 101 316 2.0 10.0 0.00 0.00 0.00 38 995.0
20220703172704 102 325 4.0 10.0 0.00 0.00 0.00 38 994.9
20220703172607 102 343 10.0 10.0 0.00 0.00 0.00 35 994.9
20220703172506 102 315 3.0 9.0 0.00 0.00 0.00 35 994.9
20220703172405 102 332 3.0 9.0 0.00 0.00 0.00 34 994.9
20220703172304 102 336 5.0 9.0 0.00 0.00 0.00 32 995.0
20220703172208 102 330 5.0 9.0 0.00 0.00 0.00 32 995.0
20220703172104 102 326 5.0 9.0 0.00 0.00 0.00 32 994.9
20220703172008 102 337 5.0 9.0 0.00 0.00 0.00 31 994.9
20220703171907 102 323 4.0 9.0 0.00 0.00 0.00 29 994.9
20220703171804 101 309 9.0 9.0 0.00 0.00 0.00 29 994.8
20220703171704 101 316 2.0 9.0 0.00 0.00 0.00 29 994.8
20220703171605 101 324 4.0 9.0 0.00 0.00 0.00 30 994.8
20220703171509 101 325 3.0 9.0 0.00 0.00 0.00 31 994.8
20220703171405 101 309 4.0 9.0 0.00 0.00 0.00 32 994.8
20220703171305 101 314 5.0 9.0 0.00 0.00 0.00 33 994.8
20220703171204 100 298 4.0 9.0 0.00 0.00 0.00 34 994.9
20220703171107 101 325 5.0 9.0 0.00 0.00 0.00 35 994.8
20220703171007 101 301 4.0 9.0 0.00 0.00 0.00 35 994.8
20220703170905 101 318 5.0 9.0 0.00 0.00 0.00 38 994.8
20220703170804 101 317 6.0 9.0 0.00 0.00 0.00 36 994.8
20220703170707 101 327 6.0 9.0 0.00 0.00 0.00 35 994.8
20220703170604 101 335 8.0 8.0 0.00 0.00 0.00 35 994.8
20220703170505 101 315 5.0 8.0 0.00 0.00 0.00 35 994.8
20220703170404 101 319 4.0 8.0 0.00 0.00 0.00 35 994.8
20220703170308 100 315 4.0 8.0 0.00 0.00 0.00 34 994.8
20220703170206 100 327 4.0 8.0 0.00 0.00 0.00 34 994.8
20220703170105 100 311 8.0 8.0 0.00 0.00 0.00 34 994.8
20220703170008 100 344 3.0 8.0 0.00 0.00 0.00 34 994.7
20220703165908 99 312 8.0 8.0 0.00 0.00 0.00 35 994.8
20220703165807 99 331 4.0 8.0 0.00 0.00 0.00 36 994.7
20220703165705 99 313 5.0 8.0 0.00 0.00 0.00 38 994.8
20220703165607 99 325 4.0 9.0 0.00 0.00 0.00 39 994.7
20220703165506 99 290 4.0 9.0 0.00 0.00 0.00 40 994.7
20220703165407 99 320 6.0 9.0 0.00 0.00 0.00 44 994.8
20220703165304 99 321 4.0 9.0 0.00 0.00 0.00 44 994.7
20220703165204 99 345 2.0 9.0 0.00 0.00 0.00 43 994.7
20220703165105 99 327 4.0 9.0 0.00 0.00 0.00 43 994.7
20220703165009 99 317 3.0 9.0 0.00 0.00 0.00 43 994.7
20220703164904 99 334 3.0 9.0 0.00 0.00 0.00 43 994.7
20220703164805 99 340 4.0 9.0 0.00 0.00 0.00 42 994.7
20220703164704 99 302 9.0 9.0 0.00 0.00 0.00 44 994.6
20220703164607 99 329 2.0 9.0 0.00 0.00 0.00 43 994.7
20220703164506 99 323 5.0 9.0 0.00 0.00 0.00 43 994.7
20220703164405 99 326 5.0 9.0 0.00 0.00 0.00 43 994.7
20220703164304 99 338 5.0 9.0 0.00 0.00 0.00 42 994.7
20220703164208 99 332 4.0 9.0 0.00 0.00 0.00 44 994.7
20220703164105 99 325 3.0 9.0 0.00 0.00 0.00 44 994.7
20220703164006 100 325 5.0 9.0 0.00 0.00 0.00 43 994.6
20220703163907 100 318 6.0 9.0 0.00 0.00 0.00 40 994.6
20220703163804 100 341 5.0 9.0 0.00 0.00 0.00 39 994.6
20220703163704 99 336 4.0 9.0 0.00 0.00 0.00 39 994.6
20220703163605 99 329 4.0 9.0 0.00 0.00 0.00 39 994.7
20220703163507 100 317 4.0 9.0 0.00 0.00 0.00 42 994.6
20220703163405 100 321 3.0 9.0 0.00 0.00 0.00 42 994.6
20220703163304 100 323 3.0 9.0 0.00 0.00 0.00 41 994.7
20220703163204 100 323 6.0 6.0 0.00 0.00 0.00 42 994.6
20220703163107 100 323 5.0 8.0 0.00 0.00 0.00 42 994.6
20220703163006 100 333 3.0 8.0 0.00 0.00 0.00 42 994.6
20220703162904 100 360 4.0 8.0 0.00 0.00 0.00 41 994.6
20220703162804 100 333 4.0 8.0 0.00 0.00 0.00 41 994.6
20220703162708 100 338 4.0 9.0 0.00 0.00 0.00 41 994.6
20220703162605 100 350 2.0 9.0 0.00 0.00 0.00 40 994.6
20220703162510 100 324 5.0 9.0 0.00 0.00 0.00 39 994.6
20220703162406 100 333 4.0 9.0 0.00 0.00 0.00 39 994.7
20220703162305 100 327 4.0 9.0 0.00 0.00 0.00 39 994.7
20220703162204 100 317 8.0 9.0 0.00 0.00 0.00 40 994.6
20220703162107 100 360 4.0 9.0 0.00 0.00 0.00 40 994.6
20220703162007 101 317 8.0 9.0 0.00 0.00 0.00 40 994.7
20220703161904 101 360 3.0 9.0 0.00 0.00 0.00 40 994.6
20220703161804 101 324 6.0 9.0 0.00 0.00 0.00 37 994.6
20220703161707 100 309 5.0 9.0 0.00 0.00 0.00 36 994.6
20220703161606 100 313 3.0 9.0 0.00 0.00 0.00 37 994.6
20220703161505 100 319 4.0 9.0 0.00 0.00 0.00 37 994.6
20220703161405 100 313 4.0 9.0 0.00 0.00 0.00 38 994.5
20220703161308 100 355 5.0 9.0 0.00 0.00 0.00 38 994.5
20220703161204 100 321 3.0 9.0 0.00 0.00 0.00 38 994.5
20220703161104 100 326 1.0 9.0 0.00 0.00 0.00 39 994.5
20220703161010 100 324 3.0 9.0 0.00 0.00 0.00 38 994.5
20220703160905 100 329 4.0 9.0 0.00 0.00 0.00 37 994.4
20220703160805 100 301 5.0 8.0 0.00 0.00 0.00 38 994.5
20220703160704 100 320 4.0 6.0 0.00 0.00 0.00 38 994.5
20220703160607 100 325 5.0 6.0 0.00 0.00 0.00 38 994.5
20220703160505 100 319 4.0 6.0 0.00 0.00 0.00 40 994.5
20220703160404 100 327 4.0 8.0 0.00 0.00 0.00 42 994.5
20220703160305 100 321 4.0 9.0 0.00 0.00 0.00 43 994.5
20220703160207 100 327 3.0 9.0 0.00 0.00 0.00 41 994.5
20220703160104 100 326 5.0 9.0 0.00 0.00 0.00 43 994.5
20220703160009 100 325 4.0 9.0 0.00 0.00 0.00 42 994.5
20220703155907 100 340 2.0 9.0 0.00 0.00 0.00 41 994.5
20220703155804 100 343 5.0 9.0 0.00 0.00 0.00 41 994.4
20220703155704 100 323 3.0 9.0 0.00 0.00 0.00 41 994.5
20220703155604 101 327 3.0 9.0 0.00 0.00 0.00 40 994.4
20220703155508 101 339 9.0 9.0 0.00 0.00 0.00 40 994.4
20220703155405 101 328 5.0 8.0 0.00 0.00 0.00 40 994.4
20220703155304 101 341 3.0 8.0 0.00 0.00 0.00 38 994.4
20220703155204 101 333 2.0 8.0 0.00 0.00 0.00 39 994.4
20220703155107 101 326 2.0 8.0 0.00 0.00 0.00 39 994.3
20220703155006 102 327 4.0 9.0 0.00 0.00 0.00 38 994.4
20220703154904 102 329 6.0 9.0 0.00 0.00 0.00 37 994.5
20220703154804 102 329 4.0 9.0 0.00 0.00 0.00 38 994.4
20220703154708 102 317 2.0 9.0 0.00 0.00 0.00 36 994.3
20220703154607 103 321 6.0 13.0 0.00 0.00 0.00 38 994.3
20220703154505 103 329 2.0 13.0 0.00 0.00 0.00 37 994.4
20220703154405 104 327 4.0 13.0 0.00 0.00 0.00 38 994.4
20220703154304 104 326 4.0 13.0 0.00 0.00 0.00 36 994.4
20220703154207 104 321 4.0 13.0 0.00 0.00 0.00 35 994.4
20220703154105 105 312 2.0 13.0 0.00 0.00 0.00 32 994.4
20220703154006 105 331 4.0 13.0 0.00 0.00 0.00 31 994.3
20220703153904 105 327 3.0 13.0 0.00 0.00 0.00 31 994.3
20220703153807 105 320 6.0 13.0 0.00 0.00 0.00 28 994.3
20220703153705 105 298 3.0 13.0 0.00 0.00 0.00 27 994.2
20220703153605 106 320 4.0 13.0 0.00 0.00 0.00 27 994.3
20220703153505 105 313 9.0 13.0 0.00 0.00 0.00 24 994.3
20220703153406 105 9 8.0 13.0 0.00 0.00 0.00 25 994.3
20220703153305 105 309 7.0 12.0 0.00 0.00 0.00 24 994.3
20220703153205 105 301 3.0 13.0 0.00 0.00 0.00 24 994.2
20220703153104 105 336 5.0 13.0 0.00 0.00 0.00 24 994.2
20220703153010 105 304 7.0 13.0 0.00 0.00 0.00 26 994.1
20220703152905 105 300 8.0 13.0 0.00 0.00 0.00 26 994.2
20220703152805 106 311 11.0 13.0 0.00 0.00 0.00 26 994.2
20220703152705 106 279 9.0 13.0 0.00 0.00 0.00 25 994.1
20220703152607 106 326 9.0 13.0 0.00 0.00 0.00 26 994.2
20220703152505 106 325 9.0 13.0 0.00 0.00 0.00 26 994.3
20220703152405 106 297 7.0 13.0 0.00 0.00 0.00 25 994.3
20220703152304 106 320 11.0 12.0 0.00 0.00 0.00 23 994.2
20220703152207 106 323 5.0 14.0 0.00 0.00 0.00 23 994.2
20220703152105 106 321 3.0 14.0 0.00 0.00 0.00 23 994.1
20220703152006 106 339 5.0 14.0 0.00 0.00 0.00 22 994.2
20220703151905 106 320 5.0 14.0 0.00 0.00 0.00 22 994.2
20220703151807 106 316 5.0 14.0 0.00 0.00 0.00 22 994.2
20220703151704 106 313 8.0 14.0 0.00 0.00 0.00 21 994.1
20220703151606 106 317 4.0 14.0 0.00 0.00 0.00 22 994.2
20220703151505 106 307 7.0 14.0 0.00 0.00 0.00 22 994.0
20220703151408 106 302 9.0 14.0 0.00 0.00 0.00 23 994.2
20220703151304 106 308 10.0 14.0 0.00 0.00 0.00 22 994.1
20220703151204 106 289 7.0 13.0 0.00 0.00 0.00 22 994.1
20220703151105 106 267 9.0 13.0 0.00 0.00 0.00 23 994.1
20220703151010 107 315 4.0 14.0 0.00 0.00 0.00 23 994.2
20220703150907 107 342 6.0 14.0 0.00 0.00 0.00 22 994.1
20220703150804 107 320 6.0 14.0 0.00 0.00 0.00 22 994.1
20220703150705 106 306 8.0 14.0 0.00 0.00 0.00 22 994.2
20220703150604 106 316 9.0 14.0 0.00 0.00 0.00 23 994.1
20220703150509 107 302 9.0 14.0 0.00 0.00 0.00 26 994.1
20220703150404 107 294 8.0 14.0 0.00 0.00 0.00 26 994.1
20220703150304 107 323 6.0 14.0 0.00 0.00 0.00 22 994.1
20220703150207 107 308 11.0 12.0 0.00 0.00 0.00 23 994.1
20220703150104 107 285 10.0 15.0 0.00 0.00 0.00 22 994.1
20220703150009 107 316 5.0 18.0 0.00 0.00 0.00 22 994.1
20220703145907 107 277 9.0 18.0 0.00 0.00 0.00 24 994.1
20220703145805 107 321 5.0 18.0 0.00 0.00 0.00 24 994.1
20220703145705 107 321 4.0 18.0 0.00 0.00 0.00 24 994.1
20220703145604 107 330 6.0 18.0 0.00 0.00 0.00 24 994.1
20220703145508 107 335 10.0 18.0 0.00 0.00 0.00 23 994.0
20220703145405 107 271 4.0 18.0 0.00 0.00 0.00 22 994.0
20220703145306 106 283 12.0 18.0 0.00 0.00 0.00 22 994.1
20220703145204 106 295 14.0 18.0 0.00 0.00 0.00 23 994.1
20220703145108 106 313 8.0 14.0 0.00 0.00 0.00 24 994.0
20220703145007 106 314 8.0 16.0 0.00 0.00 0.00 25 994.0
20220703144904 106 298 4.0 16.0 0.00 0.00 0.00 24 994.1
20220703144804 106 338 11.0 16.0 0.00 0.00 0.00 24 994.0
20220703144708 106 339 5.0 16.0 0.00 0.00 0.00 26 994.0
20220703144607 106 306 4.0 16.0 0.00 0.00 0.00 26 994.0
20220703144505 105 293 4.0 16.0 0.00 0.00 0.00 26 994.0
20220703144407 105 355 10.0 16.0 0.00 0.00 0.00 28 993.9
20220703144305 105 302 12.0 16.0 0.00 0.00 0.00 28 994.0
20220703144207 105 269 10.0 16.0 0.00 0.00 0.00 29 993.9
20220703144104 104 297 10.0 15.0 0.00 0.00 0.00 27 994.0
20220703144006 104 315 9.0 15.0 0.00 0.00 0.00 29 993.9
20220703143904 104 319 8.0 15.0 0.00 0.00 0.00 28 993.9
20220703143807 104 341 11.0 15.0 0.00 0.00 0.00 28 993.9
20220703143704 104 338 8.0 14.0 0.00 0.00 0.00 31 994.0
20220703143605 104 321 12.0 16.0 0.00 0.00 0.00 33 994.0
20220703143505 104 327 11.0 16.0 0.00 0.00 0.00 32 993.9
20220703143407 104 315 9.0 16.0 0.00 0.00 0.00 31 993.9
20220703143304 104 327 8.0 16.0 0.00 0.00 0.00 30 993.9
20220703143204 104 340 11.0 16.0 0.00 0.00 0.00 30 993.9
20220703143104 104 329 12.0 16.0 0.00 0.00 0.00 31 993.9
20220703143009 104 304 9.0 16.0 0.00 0.00 0.00 31 993.9
20220703142907 104 305 13.0 16.0 0.00 0.00 0.00 31 993.9
20220703142804 104 313 12.0 16.0 0.00 0.00 0.00 30 993.9
20220703142705 105 325 10.0 16.0 0.00 0.00 0.00 30 993.8
20220703142605 105 343 10.0 16.0 0.00 0.00 0.00 29 993.8
20220703142508 105 319 6.0 15.0 0.00 0.00 0.00 30 993.9
20220703142404 105 324 9.0 16.0 0.00 0.00 0.00 29 993.9
20220703142306 105 306 8.0 16.0 0.00 0.00 0.00 29 993.9
20220703142204 105 309 10.0 16.0 0.00 0.00 0.00 29 993.9
20220703142107 105 344 8.0 16.0 0.00 0.00 0.00 30 993.7
20220703142006 106 308 12.0 16.0 0.00 0.00 0.00 28 993.7
20220703141904 106 302 4.0 16.0 0.00 0.00 0.00 28 993.8
20220703141804 106 331 10.0 16.0 0.00 0.00 0.00 29 993.8
20220703141707 106 323 12.0 16.0 0.00 0.00 0.00 27 993.8
20220703141604 106 315 4.0 16.0 0.00 0.00 0.00 25 993.8
20220703141505 106 314 11.0 15.0 0.00 0.00 0.00 26 993.7
20220703141404 106 309 12.0 15.0 0.00 0.00 0.00 25 993.7
20220703141306 106 313 10.0 15.0 0.00 0.00 0.00 27 993.8
20220703141205 106 303 7.0 15.0 0.00 0.00 0.00 27 993.7
20220703141104 106 314 13.0 15.0 0.00 0.00 0.00 28 993.7
20220703141006 106 327 6.0 15.0 0.00 0.00 0.00 28 993.7
20220703140907 106 319 8.0 15.0 0.00 0.00 0.00 28 993.7
20220703140804 106 329 11.0 15.0 0.00 0.00 0.00 28 993.6
20220703140705 105 322 9.0 15.0 0.00 0.00 0.00 27 993.7
20220703140604 105 304 7.0 15.0 0.00 0.00 0.00 27 993.7
20220703140508 105 288 12.0 15.0 0.00 0.00 0.00 26 993.7
20220703140404 104 291 11.0 15.0 0.00 0.00 0.00 30 993.7
20220703140304 103 327 12.0 15.0 0.00 0.00 0.00 29 993.7
20220703140204 102 327 13.0 15.0 0.00 0.00 0.00 34 993.6
20220703140108 102 328 8.0 15.0 0.00 0.00 0.00 39 993.7
20220703140008 102 333 4.0 15.0 0.00 0.00 0.00 38 993.7
20220703135904 103 333 13.0 15.0 0.00 0.00 0.00 39 993.7
20220703135809 103 325 9.0 15.0 0.00 0.00 0.00 39 993.7
20220703135704 102 329 5.0 15.0 0.00 0.00 0.00 35 993.7
20220703135604 102 317 10.0 13.0 0.00 0.00 0.00 40 993.7
20220703135505 103 331 5.0 13.0 0.00 0.00 0.00 39 993.7
20220703135407 102 355 3.0 13.0 0.00 0.00 0.00 39 993.6
20220703135304 102 323 3.0 13.0 0.00 0.00 0.00 41 993.6
20220703135206 103 355 3.0 14.0 0.00 0.00 0.00 41 993.6
20220703135104 103 311 4.0 14.0 0.00 0.00 0.00 40 993.7
20220703135009 103 298 8.0 14.0 0.00 0.00 0.00 40 993.7
20220703134907 104 348 5.0 16.0 0.00 0.00 0.00 37 993.7
20220703134805 104 346 5.0 16.0 0.00 0.00 0.00 36 993.6
20220703134705 104 313 3.0 16.0 0.00 0.00 0.00 33 993.6
20220703134605 104 319 6.0 16.0 0.00 0.00 0.00 32 993.6
20220703134508 104 316 11.0 16.0 0.00 0.00 0.00 32 993.5
20220703134404 104 317 11.0 16.0 0.00 0.00 0.00 32 993.6
20220703134304 104 344 8.0 16.0 0.00 0.00 0.00 31 993.6
20220703134204 104 339 11.0 16.0 0.00 0.00 0.00 32 993.7
20220703134107 104 302 11.0 15.0 0.00 0.00 0.00 33 993.6
20220703134006 104 314 9.0 15.0 0.00 0.00 0.00 32 993.7
20220703133905 104 311 12.0 15.0 0.00 0.00 0.00 33 993.6
20220703133804 103 316 9.0 15.0 0.00 0.00 0.00 33 993.7
20220703133707 103 311 10.0 15.0 0.00 0.00 0.00 35 993.7
20220703133604 103 294 13.0 14.0 0.00 0.00 0.00 36 993.7
20220703133505 103 300 9.0 13.0 0.00 0.00 0.00 36 993.7
20220703133404 103 334 11.0 13.0 0.00 0.00 0.00 37 993.7
20220703133307 103 330 6.0 13.0 0.00 0.00 0.00 36 993.7
20220703133204 103 327 8.0 13.0 0.00 0.00 0.00 37 993.7
20220703133104 103 329 9.0 11.0 0.00 0.00 0.00 38 993.6
20220703133006 103 333 5.0 9.0 0.00 0.00 0.00 38 993.7
20220703132907 103 323 4.0 9.0 0.00 0.00 0.00 38 993.7
20220703132804 103 316 2.0 9.0 0.00 0.00 0.00 38 993.6
20220703132704 103 12 3.0 10.0 0.00 0.00 0.00 37 993.6
20220703132604 103 348 5.0 11.0 0.00 0.00 0.00 37 993.7
20220703132508 103 327 6.0 13.0 0.00 0.00 0.00 37 993.7
20220703132404 103 339 2.0 13.0 0.00 0.00 0.00 37 993.6
20220703132304 103 322 2.0 13.0 0.00 0.00 0.00 38 993.6
20220703132205 103 5 3.0 13.0 0.00 0.00 0.00 37 993.6
20220703132109 103 337 4.0 13.0 0.00 0.00 0.00 37 993.7
20220703132006 103 328 6.0 13.0 0.00 0.00 0.00 36 993.7
20220703131904 103 332 4.0 13.0 0.00 0.00 0.00 36 993.6
20220703131808 104 322 11.0 14.0 0.00 0.00 0.00 35 993.7
20220703131705 104 298 13.0 14.0 0.00 0.00 0.00 35 993.7
20220703131604 104 315 9.0 14.0 0.00 0.00 0.00 35 993.6
20220703131505 105 298 7.0 14.0 0.00 0.00 0.00 34 993.7
20220703131407 104 327 6.0 14.0 0.00 0.00 0.00 33 993.7
20220703131304 104 304 8.0 14.0 0.00 0.00 0.00 32 993.8
20220703131204 104 326 10.0 14.0 0.00 0.00 0.00 33 993.7
20220703131104 104 321 8.0 14.0 0.00 0.00 0.00 33 993.7
20220703131009 105 321 8.0 14.0 0.00 0.00 0.00 33 993.8
20220703130904 105 355 11.0 14.0 0.00 0.00 0.00 32 993.7
20220703130804 105 307 10.0 14.0 0.00 0.00 0.00 32 993.7
20220703130708 105 305 10.0 15.0 0.00 0.00 0.00 31 993.7
20220703130605 105 303 8.0 15.0 0.00 0.00 0.00 31 993.7
20220703130505 106 309 9.0 15.0 0.00 0.00 0.00 30 993.8
20220703130407 106 313 10.0 15.0 0.00 0.00 0.00 29 993.8
20220703130305 106 327 8.0 15.0 0.00 0.00 0.00 27 993.7
20220703130205 106 331 9.0 15.0 0.00 0.00 0.00 25 993.8
20220703130104 106 323 6.0 15.0 0.00 0.00 0.00 27 993.8
20220703130011 106 302 7.0 15.0 0.00 0.00 0.00 29 993.8
20220703125904 106 315 14.0 15.0 0.00 0.00 0.00 29 993.8
20220703125804 106 310 10.0 15.0 0.00 0.00 0.00 27 993.9
20220703125706 106 301 8.0 15.0 0.00 0.00 0.00 26 993.8
20220703125604 106 302 12.0 15.0 0.00 0.00 0.00 29 993.7
20220703125505 107 333 12.0 15.0 0.00 0.00 0.00 27 993.9
20220703125404 106 338 4.0 15.0 0.00 0.00 0.00 27 993.8
20220703125307 106 327 4.0 15.0 0.00 0.00 0.00 28 993.8
20220703125205 106 314 8.0 15.0 0.00 0.00 0.00 30 993.8
20220703125105 105 313 8.0 15.0 0.00 0.00 0.00 28 993.8
20220703125006 105 316 14.0 15.0 0.00 0.00 0.00 31 993.9
20220703124907 105 355 6.0 15.0 0.00 0.00 0.00 32 993.8
20220703124804 105 339 8.0 15.0 0.00 0.00 0.00 31 993.9
20220703124704 105 311 9.0 15.0 0.00 0.00 0.00 30 993.8
20220703124604 105 302 8.0 14.0 0.00 0.00 0.00 30 993.9
20220703124508 106 323 6.0 14.0 0.00 0.00 0.00 29 993.9
20220703124405 106 323 10.0 14.0 0.00 0.00 0.00 30 993.8
20220703124304 106 311 10.0 14.0 0.00 0.00 0.00 30 993.9
20220703124204 106 338 9.0 14.0 0.00 0.00 0.00 30 993.8
20220703124108 106 351 8.0 14.0 0.00 0.00 0.00 29 993.9
20220703124006 106 337 8.0 14.0 0.00 0.00 0.00 27 993.8
20220703123905 106 325 5.0 14.0 0.00 0.00 0.00 27 993.8
20220703123808 106 322 5.0 14.0 0.00 0.00 0.00 25 993.8
20220703123704 106 338 5.0 14.0 0.00 0.00 0.00 28 993.8
20220703123605 106 323 9.0 14.0 0.00 0.00 0.00 30 993.8
20220703123505 106 336 12.0 14.0 0.00 0.00 0.00 31 994.0
20220703123407 105 320 6.0 14.0 0.00 0.00 0.00 30 993.9
20220703123305 105 296 3.0 13.0 0.00 0.00 0.00 32 993.9
20220703123205 105 311 6.0 13.0 0.00 0.00 0.00 31 993.9
20220703123104 105 350 11.0 13.0 0.00 0.00 0.00 31 993.9
20220703123010 105 338 10.0 13.0 0.00 0.00 0.00 29 993.9
20220703122907 105 325 10.0 13.0 0.00 0.00 0.00 29 993.9
20220703122804 105 321 5.0 13.0 0.00 0.00 0.00 30 993.9
20220703122706 105 317 10.0 13.0 0.00 0.00 0.00 31 993.9
20220703122605 104 306 7.0 13.0 0.00 0.00 0.00 31 993.9
20220703122509 104 328 10.0 12.0 0.00 0.00 0.00 32 993.9
20220703122405 105 322 10.0 12.0 0.00 0.00 0.00 33 993.9
20220703122305 105 333 9.0 12.0 0.00 0.00 0.00 33 993.9
20220703122204 105 320 9.0 12.0 0.00 0.00 0.00 32 993.9
20220703122108 105 329 9.0 13.0 0.00 0.00 0.00 31 994.0
20220703122006 105 324 10.0 13.0 0.00 0.00 0.00 32 994.0
20220703121904 105 312 4.0 13.0 0.00 0.00 0.00 32 994.0
20220703121804 105 328 8.0 13.0 0.00 0.00 0.00 33 994.0
20220703121706 105 5 4.0 13.0 0.00 0.00 0.00 33 994.0
20220703121604 106 317 9.0 13.0 0.00 0.00 0.00 34 994.0
20220703121505 106 312 4.0 15.0 0.00 0.00 0.00 33 994.0
20220703121404 106 16 1.0 15.0 0.00 0.00 0.00 31 994.0
20220703121307 106 333 8.0 15.0 0.00 0.00 0.00 31 994.0
20220703121204 106 5 3.0 15.0 0.00 0.00 0.00 31 994.1
20220703121104 106 313 8.0 15.0 0.00 0.00 0.00 31 994.1
20220703121005 106 336 2.0 15.0 0.00 0.00 0.00 31 994.0
20220703120907 105 321 11.0 15.0 0.00 0.00 0.00 31 994.0
20220703120804 105 315 8.0 15.0 0.00 0.00 0.00 31 994.0
20220703120704 105 5 4.0 15.0 0.00 0.00 0.00 28 994.0
20220703120604 105 310 5.0 15.0 0.00 0.00 0.00 30 994.0
20220703120507 105 336 11.0 15.0 0.00 0.00 0.00 31 994.0
20220703120404 104 323 10.0 15.0 0.00 0.00 0.00 31 994.1
20220703120304 104 338 9.0 15.0 0.00 0.00 0.00 29 994.0
20220703120205 104 307 9.0 15.0 0.00 0.00 0.00 33 994.0
20220703120108 104 344 11.0 13.0 0.00 0.00 0.00 35 994.1
20220703120008 104 351 4.0 13.0 0.00 0.00 0.00 35 994.0
20220703115904 104 326 8.0 13.0 0.00 0.00 0.00 33 994.1
20220703115807 104 311 9.0 12.0 0.00 0.00 0.00 33 994.1
20220703115703 104 336 4.0 12.0 0.00 0.00 0.00 34 994.1
20220703115604 104 313 6.0 13.0 0.00 0.00 0.00 33 994.2
20220703115508 104 323 10.0 13.0 0.00 0.00 0.00 32 994.1
20220703115404 104 341 6.0 13.0 0.00 0.00 0.00 32 994.1
20220703115303 104 323 8.0 13.0 0.00 0.00 0.00 34 994.1
20220703115204 104 323 6.0 13.0 0.00 0.00 0.00 33 994.1
20220703115106 104 306 7.0 13.0 0.00 0.00 0.00 35 994.1
20220703115006 104 329 8.0 13.0 0.00 0.00 0.00 36 994.1
20220703114903 104 320 9.0 13.0 0.00 0.00 0.00 35 994.2
20220703114805 103 333 4.0 13.0 0.00 0.00 0.00 32 994.2
20220703114707 103 309 8.0 13.0 0.00 0.00 0.00 35 994.2
20220703114603 103 323 12.0 13.0 0.00 0.00 0.00 34 994.3
20220703114504 103 348 5.0 13.0 0.00 0.00 0.00 37 994.2
20220703114404 103 316 12.0 13.0 0.00 0.00 0.00 37 994.2
20220703114306 103 355 6.0 13.0 0.00 0.00 0.00 36 994.3
20220703114204 103 313 8.0 13.0 0.00 0.00 0.00 35 994.2
20220703114103 102 334 6.0 13.0 0.00 0.00 0.00 38 994.2
20220703114005 102 336 8.0 13.0 0.00 0.00 0.00 38 994.2
20220703113906 102 355 11.0 13.0 0.00 0.00 0.00 39 994.2
20220703113804 102 333 3.0 13.0 0.00 0.00 0.00 39 994.3
20220703113703 102 360 2.0 13.0 0.00 0.00 0.00 41 994.3
20220703113603 101 360 4.0 13.0 0.00 0.00 0.00 41 994.3
20220703113507 102 355 6.0 13.0 0.00 0.00 0.00 40 994.4
20220703113404 102 342 4.0 13.0 0.00 0.00 0.00 40 994.4
20220703113303 102 355 8.0 13.0 0.00 0.00 0.00 40 994.4
20220703113204 102 355 10.0 13.0 0.00 0.00 0.00 40 994.4
20220703113106 103 344 5.0 13.0 0.00 0.00 0.00 39 994.4
20220703113005 103 335 8.0 13.0 0.00 0.00 0.00 37 994.4
20220703112903 103 320 12.0 12.0 0.00 0.00 0.00 36 994.4
20220703112803 103 13 5.0 12.0 0.00 0.00 0.00 36 994.4
20220703112706 103 325 5.0 12.0 0.00 0.00 0.00 35 994.4
20220703112603 104 335 5.0 12.0 0.00 0.00 0.00 35 994.4
20220703112504 104 345 5.0 12.0 0.00 0.00 0.00 34 994.4
20220703112403 104 336 6.0 12.0 0.00 0.00 0.00 33 994.4
20220703112306 104 332 6.0 12.0 0.00 0.00 0.00 33 994.4
20220703112203 104 329 9.0 12.0 0.00 0.00 0.00 30 994.4
20220703112103 104 360 5.0 12.0 0.00 0.00 0.00 31 994.4
20220703112005 104 333 8.0 12.0 0.00 0.00 0.00 32 994.5
20220703111907 104 346 8.0 12.0 0.00 0.00 0.00 32 994.5
20220703111805 104 339 5.0 12.0 0.00 0.00 0.00 34 994.5
20220703111704 104 5 5.0 12.0 0.00 0.00 0.00 34 994.5
20220703111603 104 336 9.0 12.0 0.00 0.00 0.00 34 994.5
20220703111508 104 331 8.0 12.0 0.00 0.00 0.00 34 994.5
20220703111403 104 330 4.0 12.0 0.00 0.00 0.00 34 994.5
20220703111303 104 341 5.0 11.0 0.00 0.00 0.00 33 994.5
20220703111205 104 342 2.0 11.0 0.00 0.00 0.00 33 994.5
20220703111106 104 344 5.0 11.0 0.00 0.00 0.00 33 994.5
20220703111005 103 336 11.0 11.0 0.00 0.00 0.00 33 994.5
20220703110903 103 355 6.0 11.0 0.00 0.00 0.00 35 994.5
20220703110803 103 328 3.0 11.0 0.00 0.00 0.00 35 994.5
20220703110706 103 321 11.0 11.0 0.00 0.00 0.00 36 994.5
20220703110603 103 360 8.0 11.0 0.00 0.00 0.00 37 994.5
20220703110505 103 13 5.0 11.0 0.00 0.00 0.00 37 994.6
20220703110408 103 341 5.0 11.0 0.00 0.00 0.00 37 994.6
20220703110304 103 346 4.0 11.0 0.00 0.00 0.00 37 994.6
20220703110203 103 344 8.0 14.0 0.00 0.00 0.00 37 994.6
20220703110104 103 355 4.0 14.0 0.00 0.00 0.00 37 994.5
20220703110010 103 344 5.0 14.0 0.00 0.00 0.00 35 994.6
20220703105903 103 349 5.0 15.0 0.00 0.00 0.00 36 994.6
20220703105803 103 338 8.0 15.0 0.00 0.00 0.00 37 994.5
20220703105705 103 329 9.0 15.0 0.00 0.00 0.00 37 994.5
20220703105606 104 344 5.0 15.0 0.00 0.00 0.00 38 994.6
20220703105504 104 328 6.0 15.0 0.00 0.00 0.00 30 994.6
20220703105404 104 324 5.0 15.0 0.00 0.00 0.00 29 994.6
20220703105303 104 302 10.0 15.0 0.00 0.00 0.00 28 994.6
20220703105206 104 304 7.0 15.0 0.00 0.00 0.00 28 994.6
20220703105104 103 324 11.0 15.0 0.00 0.00 0.00 30 994.6
20220703105005 103 5 10.0 13.0 0.00 0.00 0.00 32 994.6
20220703104904 103 350 12.0 13.0 0.00 0.00 0.00 32 994.6
20220703104805 103 319 11.0 13.0 0.00 0.00 0.00 35 994.7
20220703104703 103 337 5.0 13.0 0.00 0.00 0.00 34 994.7
20220703104604 104 340 9.0 13.0 0.00 0.00 0.00 34 994.6
20220703104504 104 360 13.0 14.0 0.00 0.00 0.00 33 994.6
20220703104406 104 342 10.0 14.0 0.00 0.00 0.00 33 994.6
20220703104304 104 340 8.0 14.0 0.00 0.00 0.00 32 994.6
20220703104204 104 313 9.0 14.0 0.00 0.00 0.00 33 994.7
20220703104104 104 340 8.0 14.0 0.00 0.00 0.00 32 994.7
20220703104009 104 314 4.0 14.0 0.00 0.00 0.00 32 994.6
20220703103904 104 319 4.0 14.0 0.00 0.00 0.00 32 994.7
20220703103803 104 342 9.0 14.0 0.00 0.00 0.00 30 994.7
20220703103703 104 316 11.0 14.0 0.00 0.00 0.00 31 994.7
20220703103606 105 335 6.0 13.0 0.00 0.00 0.00 32 994.7
20220703103506 105 350 4.0 13.0 0.00 0.00 0.00 31 994.7
20220703103403 104 313 6.0 13.0 0.00 0.00 0.00 31 994.8
20220703103303 104 334 6.0 13.0 0.00 0.00 0.00 32 994.6
20220703103207 104 331 8.0 13.0 0.00 0.00 0.00 31 994.8
20220703103106 104 313 9.0 13.0 0.00 0.00 0.00 28 994.7
20220703103005 104 313 11.0 13.0 0.00 0.00 0.00 32 994.6
20220703102905 104 355 3.0 13.0 0.00 0.00 0.00 32 994.6
20220703102803 105 355 8.0 14.0 0.00 0.00 0.00 33 994.7
20220703102706 105 323 3.0 14.0 0.00 0.00 0.00 32 994.7
20220703102606 105 315 10.0 17.0 0.00 0.00 0.00 30 994.7
20220703102504 105 331 5.0 17.0 0.00 0.00 0.00 30 994.7
20220703102405 105 344 4.0 17.0 0.00 0.00 0.00 29 994.7
20220703102304 105 327 8.0 17.0 0.00 0.00 0.00 28 994.7
20220703102206 106 324 13.0 17.0 0.00 0.00 0.00 28 994.8
20220703102103 106 334 8.0 17.0 0.00 0.00 0.00 26 994.7
20220703102006 106 335 10.0 17.0 0.00 0.00 0.00 24 994.8
20220703101904 106 39 4.0 17.0 0.00 0.00 0.00 23 994.8
20220703101806 106 355 9.0 17.0 0.00 0.00 0.00 21 994.8
20220703101703 106 312 14.0 15.0 0.00 0.00 0.00 24 994.8
20220703101603 106 317 9.0 15.0 0.00 0.00 0.00 24 994.8
20220703101504 106 334 5.0 15.0 0.00 0.00 0.00 22 994.8
20220703101406 106 290 10.0 17.0 0.00 0.00 0.00 22 994.9
20220703101303 105 317 6.0 17.0 0.00 0.00 0.00 23 994.8
20220703101203 105 342 11.0 17.0 0.00 0.00 0.00 26 994.8
20220703101103 105 300 13.0 17.0 0.00 0.00 0.00 24 994.8
20220703101008 105 311 13.0 17.0 0.00 0.00 0.00 24 994.8
20220703100903 105 302 12.0 17.0 0.00 0.00 0.00 24 994.9
20220703100804 105 329 8.0 17.0 0.00 0.00 0.00 26 994.9
20220703100703 105 287 12.0 17.0 0.00 0.00 0.00 22 994.9
20220703100605 104 307 12.0 17.0 0.00 0.00 0.00 24 994.9
20220703100504 104 313 14.0 16.0 0.00 0.00 0.00 25 994.9
20220703100403 104 339 11.0 16.0 0.00 0.00 0.00 25 995.0
20220703100303 103 339 3.0 16.0 0.00 0.00 0.00 27 994.9
20220703100206 103 326 13.0 15.0 0.00 0.00 0.00 26 994.9
20220703100103 103 349 11.0 15.0 0.00 0.00 0.00 32 994.9
20220703100007 103 331 8.0 15.0 0.00 0.00 0.00 33 994.9
20220703095906 103 355 8.0 15.0 0.00 0.00 0.00 31 994.9
20220703095803 103 325 6.0 15.0 0.00 0.00 0.00 30 994.9
20220703095703 103 355 4.0 12.0 0.00 0.00 0.00 31 994.9
20220703095605 103 333 6.0 12.0 0.00 0.00 0.00 32 995.0
20220703095508 103 304 8.0 12.0 0.00 0.00 0.00 32 994.9
20220703095404 103 326 8.0 13.0 0.00 0.00 0.00 33 994.9
20220703095304 102 338 4.0 13.0 0.00 0.00 0.00 34 995.0
20220703095204 103 313 6.0 13.0 0.00 0.00 0.00 34 994.9
20220703095107 103 355 8.0 13.0 0.00 0.00 0.00 34 994.9
20220703095005 103 329 6.0 14.0 0.00 0.00 0.00 33 995.0
20220703094904 103 295 5.0 14.0 0.00 0.00 0.00 33 994.9
20220703094803 103 317 5.0 18.0 0.00 0.00 0.00 32 994.9
20220703094707 103 329 11.0 18.0 0.00 0.00 0.00 32 995.0
20220703094606 103 334 8.0 18.0 0.00 0.00 0.00 31 994.9
20220703094504 103 342 4.0 18.0 0.00 0.00 0.00 30 994.8
20220703094404 103 346 6.0 18.0 0.00 0.00 0.00 30 995.0
20220703094308 103 336 10.0 18.0 0.00 0.00 0.00 29 995.0
20220703094204 103 309 10.0 18.0 0.00 0.00 0.00 27 995.0
20220703094103 102 316 11.0 18.0 0.00 0.00 0.00 27 995.0
20220703094005 102 302 16.0 18.0 0.00 0.00 0.00 30 994.9
20220703093907 102 312 11.0 18.0 0.00 0.00 0.00 32 994.9
20220703093803 102 325 6.0 18.0 0.00 0.00 0.00 33 995.0
20220703093704 101 326 6.0 16.0 0.00 0.00 0.00 33 995.0
20220703093603 101 330 3.0 16.0 0.00 0.00 0.00 35 994.9
20220703093507 101 10 7.0 16.0 0.00 0.00 0.00 37 995.0
20220703093404 101 312 8.0 14.0 0.00 0.00 0.00 35 995.0
20220703093303 101 331 9.0 14.0 0.00 0.00 0.00 34 995.0
20220703093203 101 324 9.0 14.0 0.00 0.00 0.00 37 995.0
20220703093107 101 336 8.0 13.0 0.00 0.00 0.00 38 995.0
20220703093005 101 317 6.0 13.0 0.00 0.00 0.00 37 995.0
20220703092903 101 309 3.0 13.0 0.00 0.00 0.00 37 995.0
20220703092803 101 316 9.0 13.0 0.00 0.00 0.00 36 995.0
20220703092707 101 350 6.0 12.0 0.00 0.00 0.00 37 995.0
20220703092604 101 323 12.0 12.0 0.00 0.00 0.00 35 995.0
20220703092506 101 335 11.0 12.0 0.00 0.00 0.00 37 995.1
20220703092404 101 337 6.0 12.0 0.00 0.00 0.00 37 995.0
20220703092307 101 309 8.0 12.0 0.00 0.00 0.00 37 995.0
20220703092204 101 355 4.0 12.0 0.00 0.00 0.00 37 995.1
20220703092104 102 348 11.0 12.0 0.00 0.00 0.00 37 995.1
20220703092006 102 332 9.0 12.0 0.00 0.00 0.00 36 995.1
20220703091908 102 319 10.0 12.0 0.00 0.00 0.00 36 995.1
20220703091803 102 339 5.0 12.0 0.00 0.00 0.00 35 995.1
20220703091703 102 346 6.0 12.0 0.00 0.00 0.00 35 995.1
20220703091604 102 313 10.0 11.0 0.00 0.00 0.00 36 995.1
20220703091507 102 340 5.0 12.0 0.00 0.00 0.00 35 995.1
20220703091403 102 315 9.0 12.0 0.00 0.00 0.00 34 995.2
20220703091304 102 340 5.0 12.0 0.00 0.00 0.00 35 995.2
20220703091203 102 355 5.0 12.0 0.00 0.00 0.00 35 995.2
20220703091106 102 350 4.0 12.0 0.00 0.00 0.00 36 995.2
20220703091006 102 344 3.0 12.0 0.00 0.00 0.00 36 995.2
20220703090903 102 330 5.0 12.0 0.00 0.00 0.00 34 995.2
20220703090803 102 320 4.0 12.0 0.00 0.00 0.00 34 995.2
20220703090705 102 329 6.0 12.0 0.00 0.00 0.00 34 995.2
20220703090608 102 15 9.0 11.0 0.00 0.00 0.00 35 995.2
20220703090504 102 326 4.0 11.0 0.00 0.00 0.00 34 995.3
20220703090407 102 326 3.0 11.0 0.00 0.00 0.00 35 995.3
20220703090305 102 326 4.0 11.0 0.00 0.00 0.00 36 995.3
20220703090203 102 325 5.0 11.0 0.00 0.00 0.00 38 995.3
20220703090106 102 321 5.0 11.0 0.00 0.00 0.00 37 995.3
20220703090008 102 317 8.0 11.0 0.00 0.00 0.00 37 995.4
20220703085903 102 311 3.0 11.0 0.00 0.00 0.00 36 995.4
20220703085806 102 311 6.0 11.0 0.00 0.00 0.00 35 995.4
20220703085703 102 307 3.0 11.0 0.00 0.00 0.00 32 995.4
20220703085603 102 307 5.0 11.0 0.00 0.00 0.00 32 995.4
20220703085504 102 302 7.0 11.0 0.00 0.00 0.00 34 995.4
20220703085406 102 302 4.0 11.0 0.00 0.00 0.00 35 995.4
20220703085304 102 302 7.0 11.0 0.00 0.00 0.00 34 995.4
20220703085203 102 299 3.0 11.0 0.00 0.00 0.00 35 995.4
20220703085104 102 294 5.0 11.0 0.00 0.00 0.00 36 995.5
20220703085010 102 294 7.0 11.0 0.00 0.00 0.00 36 995.5
20220703084903 102 294 8.0 12.0 0.00 0.00 0.00 35 995.4
20220703084803 102 349 5.0 13.0 0.00 0.00 0.00 34 995.4
20220703084704 102 334 3.0 13.0 0.00 0.00 0.00 34 995.4
20220703084606 102 305 9.0 13.0 0.00 0.00 0.00 34 995.5
20220703084504 101 345 10.0 13.0 0.00 0.00 0.00 32 995.5
20220703084403 101 327 8.0 14.0 0.00 0.00 0.00 32 995.5
20220703084304 101 340 5.0 14.0 0.00 0.00 0.00 32 995.6
20220703084206 101 319 6.0 14.0 0.00 0.00 0.00 32 995.6
20220703084103 101 312 6.0 14.0 0.00 0.00 0.00 33 995.6
20220703084006 100 340 8.0 14.0 0.00 0.00 0.00 32 995.6
20220703083903 100 307 9.0 14.0 0.00 0.00 0.00 34 995.6
20220703083806 100 289 9.0 14.0 0.00 0.00 0.00 35 995.6
20220703083704 100 323 11.0 14.0 0.00 0.00 0.00 34 995.7
20220703083603 100 313 11.0 13.0 0.00 0.00 0.00 35 995.7
20220703083502 100 316 9.0 13.0 0.00 0.00 0.00 35 995.7
20220703083406 100 299 9.0 13.0 0.00 0.00 0.00 36 995.7
20220703083303 100 318 5.0 13.0 0.00 0.00 0.00 36 995.7
20220703083203 100 309 8.0 12.0 0.00 0.00 0.00 36 995.7
20220703083103 100 320 11.0 12.0 0.00 0.00 0.00 36 995.7
20220703083008 100 296 4.0 12.0 0.00 0.00 0.00 36 995.7
20220703082904 100 319 8.0 12.0 0.00 0.00 0.00 37 995.7
20220703082804 100 316 6.0 12.0 0.00 0.00 0.00 38 995.7
20220703082705 100 326 9.0 12.0 0.00 0.00 0.00 37 995.7
20220703082606 100 319 6.0 12.0 0.00 0.00 0.00 36 995.7
20220703082508 100 315 11.0 12.0 0.00 0.00 0.00 37 995.7
20220703082403 100 332 3.0 12.0 0.00 0.00 0.00 37 995.7
20220703082306 100 19 5.0 12.0 0.00 0.00 0.00 37 995.7
20220703082203 100 312 1.0 12.0 0.00 0.00 0.00 37 995.8
20220703082106 100 321 9.0 12.0 0.00 0.00 0.00 36 995.7
20220703082005 100 360 10.0 12.0 0.00 0.00 0.00 36 995.8
20220703081903 100 320 6.0 10.0 0.00 0.00 0.00 38 995.8
20220703081804 100 331 4.0 10.0 0.00 0.00 0.00 38 995.7
20220703081706 100 329 5.0 10.0 0.00 0.00 0.00 39 995.9
20220703081603 100 360 4.0 10.0 0.00 0.00 0.00 40 995.8
20220703081504 100 344 4.0 13.0 0.00 0.00 0.00 40 995.8
20220703081403 100 345 6.0 13.0 0.00 0.00 0.00 40 995.8
20220703081306 100 351 6.0 13.0 0.00 0.00 0.00 39 995.9
20220703081203 100 321 8.0 13.0 0.00 0.00 0.00 39 996.0
20220703081104 100 351 6.0 15.0 0.00 0.00 0.00 39 995.8
20220703081005 101 348 4.0 15.0 0.00 0.00 0.00 38 996.0
20220703080906 100 336 3.0 15.0 0.00 0.00 0.00 36 995.9
20220703080803 100 329 3.0 15.0 0.00 0.00 0.00 37 995.8
20220703080703 100 298 8.0 15.0 0.00 0.00 0.00 36 996.0
20220703080603 101 317 12.0 18.0 0.00 0.00 0.00 36 996.0
20220703080507 101 334 5.0 18.0 0.00 0.00 0.00 36 996.0
20220703080403 101 25 6.0 18.0 0.00 0.00 0.00 34 995.9
20220703080304 101 338 11.0 18.0 0.00 0.00 0.00 33 996.0
20220703080204 101 313 8.0 18.0 0.00 0.00 0.00 34 996.0
20220703080106 101 339 8.0 18.0 0.00 0.00 0.00 34 996.0
20220703080009 100 315 4.0 18.0 0.00 0.00 0.00 33 996.0
20220703075903 100 317 6.0 18.0 0.00 0.00 0.00 32 996.0
20220703075806 100 351 8.0 18.0 0.00 0.00 0.00 31 996.0
20220703075703 100 298 13.0 18.0 0.00 0.00 0.00 31 996.1
20220703075604 100 344 10.0 15.0 0.00 0.00 0.00 32 996.0
20220703075504 101 319 11.0 15.0 0.00 0.00 0.00 33 996.0
20220703075408 101 329 11.0 15.0 0.00 0.00 0.00 33 996.1
20220703075303 101 321 14.0 14.0 0.00 0.00 0.00 32 996.1
20220703075203 101 294 5.0 14.0 0.00 0.00 0.00 32 996.1
20220703075103 101 11 9.0 14.0 0.00 0.00 0.00 32 996.1
20220703075008 100 333 5.0 14.0 0.00 0.00 0.00 30 996.2
20220703074903 100 312 9.0 14.0 0.00 0.00 0.00 28 996.2
20220703074803 100 360 13.0 16.0 0.00 0.00 0.00 33 996.2
20220703074707 100 306 9.0 16.0 0.00 0.00 0.00 35 996.2
20220703074604 100 323 6.0 16.0 0.00 0.00 0.00 35 996.2
20220703074504 100 315 6.0 16.0 0.00 0.00 0.00 37 996.1
20220703074403 100 301 10.0 16.0 0.00 0.00 0.00 37 996.2
20220703074306 101 315 8.0 19.0 0.00 0.00 0.00 36 996.2
20220703074206 101 313 6.0 19.0 0.00 0.00 0.00 34 996.1
20220703074104 101 338 3.0 19.0 0.00 0.00 0.00 30 996.2
20220703074006 101 319 15.0 19.0 0.00 0.00 0.00 31 996.2
20220703073903 101 341 12.0 19.0 0.00 0.00 0.00 31 996.2
20220703073806 101 300 13.0 19.0 0.00 0.00 0.00 29 996.2
20220703073703 100 323 8.0 19.0 0.00 0.00 0.00 29 996.2
20220703073603 100 306 8.0 19.0 0.00 0.00 0.00 29 996.1
20220703073503 100 318 14.0 19.0 0.00 0.00 0.00 34 996.1
20220703073406 100 334 8.0 17.0 0.00 0.00 0.00 32 996.2
20220703073303 100 338 10.0 17.0 0.00 0.00 0.00 31 996.2
20220703073203 100 336 10.0 17.0 0.00 0.00 0.00 33 996.3
20220703073103 100 336 5.0 14.0 0.00 0.00 0.00 33 996.2
20220703073008 100 323 8.0 14.0 0.00 0.00 0.00 31 996.2
20220703072903 100 329 8.0 14.0 0.00 0.00 0.00 31 996.3
20220703072804 99 337 6.0 14.0 0.00 0.00 0.00 33 996.2
20220703072703 99 312 8.0 14.0 0.00 0.00 0.00 34 996.2
20220703072606 99 302 8.0 14.0 0.00 0.00 0.00 33 996.2
20220703072504 99 350 8.0 14.0 0.00 0.00 0.00 35 996.2
20220703072403 99 333 5.0 14.0 0.00 0.00 0.00 34 996.2
20220703072303 100 306 10.0 13.0 0.00 0.00 0.00 35 996.2
20220703072206 100 341 9.0 18.0 0.00 0.00 0.00 35 996.3
20220703072103 100 300 8.0 18.0 0.00 0.00 0.00 35 996.2
20220703072005 100 336 8.0 18.0 0.00 0.00 0.00 35 996.2
20220703071903 100 355 11.0 18.0 0.00 0.00 0.00 34 996.3
20220703071806 101 344 8.0 18.0 0.00 0.00 0.00 34 996.3
20220703071704 101 5 8.0 18.0 0.00 0.00 0.00 32 996.2
20220703071603 101 327 6.0 18.0 0.00 0.00 0.00 30 996.2
20220703071503 100 333 11.0 18.0 0.00 0.00 0.00 27 996.3
20220703071409 100 281 9.0 18.0 0.00 0.00 0.00 29 996.3
20220703071303 101 334 13.0 17.0 0.00 0.00 0.00 30 996.3
20220703071203 101 351 6.0 17.0 0.00 0.00 0.00 30 996.3
20220703071103 101 347 9.0 17.0 0.00 0.00 0.00 28 996.3
20220703071008 101 292 3.0 17.0 0.00 0.00 0.00 27 996.2
20220703070903 101 309 14.0 17.0 0.00 0.00 0.00 28 996.3
20220703070806 101 327 8.0 14.0 0.00 0.00 0.00 29 996.4
20220703070704 101 336 9.0 14.0 0.00 0.00 0.00 28 996.3
20220703070603 101 302 11.0 14.0 0.00 0.00 0.00 29 996.3
20220703070506 101 319 10.0 13.0 0.00 0.00 0.00 30 996.4
20220703070406 102 335 4.0 17.0 0.00 0.00 0.00 30 996.3
20220703070304 102 325 4.0 17.0 0.00 0.00 0.00 28 996.3
20220703070203 102 321 10.0 17.0 0.00 0.00 0.00 28 996.3
20220703070104 102 335 8.0 17.0 0.00 0.00 0.00 28 996.4
20220703070012 102 342 6.0 17.0 0.00 0.00 0.00 26 996.3
20220703065903 101 302 4.0 17.0 0.00 0.00 0.00 23 996.3
20220703065803 101 323 10.0 17.0 0.00 0.00 0.00 22 996.3
20220703065707 101 298 8.0 17.0 0.00 0.00 0.00 22 996.3
20220703065603 101 307 10.0 15.0 0.00 0.00 0.00 24 996.3
20220703065504 101 288 8.0 15.0 0.00 0.00 0.00 25 996.3
20220703065403 101 329 10.0 15.0 0.00 0.00 0.00 25 996.2
20220703065306 101 296 10.0 15.0 0.00 0.00 0.00 26 996.3
20220703065203 101 327 10.0 15.0 0.00 0.00 0.00 23 996.3
20220703065103 101 320 8.0 15.0 0.00 0.00 0.00 23 996.3
20220703065005 101 302 10.0 15.0 0.00 0.00 0.00 23 996.3
20220703064906 101 308 5.0 15.0 0.00 0.00 0.00 24 996.3
20220703064803 100 317 4.0 15.0 0.00 0.00 0.00 25 996.3
20220703064705 100 315 10.0 15.0 0.00 0.00 0.00 24 996.4
20220703064603 100 319 6.0 15.0 0.00 0.00 0.00 25 996.4
20220703064507 100 340 6.0 15.0 0.00 0.00 0.00 26 996.4
20220703064403 100 329 6.0 15.0 0.00 0.00 0.00 24 996.4
20220703064303 100 293 8.0 15.0 0.00 0.00 0.00 25 996.4
20220703064203 100 340 11.0 14.0 0.00 0.00 0.00 25 996.4
20220703064106 100 309 8.0 14.0 0.00 0.00 0.00 26 996.4
20220703064005 100 316 5.0 14.0 0.00 0.00 0.00 24 996.4
20220703063903 100 317 8.0 14.0 0.00 0.00 0.00 24 996.5
20220703063803 100 317 6.0 14.0 0.00 0.00 0.00 25 996.4
20220703063705 100 301 9.0 14.0 0.00 0.00 0.00 25 996.5
20220703063603 100 302 12.0 15.0 0.00 0.00 0.00 25 996.4
20220703063504 100 338 11.0 15.0 0.00 0.00 0.00 24 996.5
20220703063403 100 305 9.0 15.0 0.00 0.00 0.00 26 996.5
20220703063307 100 332 11.0 15.0 0.00 0.00 0.00 24 996.5
20220703063203 100 300 4.0 15.0 0.00 0.00 0.00 25 996.4
20220703063103 100 315 10.0 15.0 0.00 0.00 0.00 24 996.4
20220703063009 100 331 9.0 15.0 0.00 0.00 0.00 24 996.4
20220703062903 100 322 10.0 15.0 0.00 0.00 0.00 26 996.4
20220703062803 100 315 10.0 15.0 0.00 0.00 0.00 25 996.4
20220703062704 100 315 10.0 14.0 0.00 0.00 0.00 24 996.5
20220703062606 100 311 8.0 14.0 0.00 0.00 0.00 25 996.5
20220703062504 100 304 9.0 14.0 0.00 0.00 0.00 24 996.5
20220703062403 100 317 9.0 16.0 0.00 0.00 0.00 24 996.4
20220703062303 100 342 11.0 16.0 0.00 0.00 0.00 25 996.4
20220703062206 100 314 9.0 16.0 0.00 0.00 0.00 25 996.4
20220703062104 100 330 10.0 16.0 0.00 0.00 0.00 27 996.5
20220703062006 100 306 7.0 16.0 0.00 0.00 0.00 27 996.5
20220703061903 100 320 6.0 16.0 0.00 0.00 0.00 23 996.4
20220703061806 100 275 8.0 16.0 0.00 0.00 0.00 24 996.4
20220703061704 100 327 10.0 16.0 0.00 0.00 0.00 25 996.5
20220703061603 100 296 8.0 16.0 0.00 0.00 0.00 24 996.5
20220703061504 100 268 13.0 13.0 0.00 0.00 0.00 25 996.6
20220703061406 100 309 3.0 12.0 0.00 0.00 0.00 25 996.5
20220703061303 100 327 10.0 13.0 0.00 0.00 0.00 26 996.5
20220703061203 100 293 8.0 13.0 0.00 0.00 0.00 26 996.5
20220703061105 100 309 3.0 13.0 0.00 0.00 0.00 26 996.5
20220703061008 100 284 7.0 13.0 0.00 0.00 0.00 25 996.5
20220703060902 100 317 9.0 13.0 0.00 0.00 0.00 25 996.5
20220703060803 99 309 10.0 13.0 0.00 0.00 0.00 26 996.5
20220703060704 99 269 10.0 13.0 0.00 0.00 0.00 25 996.5
20220703060607 99 281 6.0 13.0 0.00 0.00 0.00 26 996.5
20220703060504 99 315 4.0 13.0 0.00 0.00 0.00 26 996.5
20220703060403 99 300 5.0 13.0 0.00 0.00 0.00 26 996.5
20220703060303 99 314 6.0 13.0 0.00 0.00 0.00 26 996.5
20220703060205 99 317 12.0 13.0 0.00 0.00 0.00 26 996.5
20220703060103 99 326 4.0 14.0 0.00 0.00 0.00 26 996.5
20220703060007 99 277 9.0 14.0 0.00 0.00 0.00 26 996.4
20220703055906 99 301 8.0 14.0 0.00 0.00 0.00 26 996.4
20220703055803 99 323 9.0 14.0 0.00 0.00 0.00 26 996.4
20220703055703 99 290 8.0 14.0 0.00 0.00 0.00 26 996.4
20220703055603 99 306 3.0 14.0 0.00 0.00 0.00 25 996.4
20220703055506 99 324 9.0 14.0 0.00 0.00 0.00 26 996.5
20220703055403 99 320 8.0 14.0 0.00 0.00 0.00 25 996.5
20220703055303 99 279 9.0 14.0 0.00 0.00 0.00 26 996.5
20220703055204 99 306 12.0 12.0 0.00 0.00 0.00 26 996.5
20220703055107 99 290 5.0 12.0 0.00 0.00 0.00 26 996.5
20220703055005 99 317 8.0 12.0 0.00 0.00 0.00 25 996.5
20220703054903 99 308 10.0 12.0 0.00 0.00 0.00 26 996.5
20220703054803 99 315 6.0 14.0 0.00 0.00 0.00 26 996.5
20220703054705 99 290 4.0 14.0 0.00 0.00 0.00 27 996.5
20220703054603 99 308 1.0 14.0 0.00 0.00 0.00 26 996.4
20220703054504 99 315 3.0 14.0 0.00 0.00 0.00 26 996.3
20220703054407 99 313 5.0 14.0 0.00 0.00 0.00 26 996.5
20220703054303 98 315 5.0 14.0 0.00 0.00 0.00 26 996.5
20220703054203 98 294 5.0 14.0 0.00 0.00 0.00 26 996.4
20220703054103 98 324 6.0 14.0 0.00 0.00 0.00 26 996.5
20220703054008 98 308 4.0 14.0 0.00 0.00 0.00 26 996.5
20220703053903 98 302 14.0 14.0 0.00 0.00 0.00 26 996.5
20220703053803 98 306 4.0 14.0 0.00 0.00 0.00 26 996.4
20220703053703 98 261 7.0 14.0 0.00 0.00 0.00 26 996.5
20220703053606 98 281 11.0 12.0 0.00 0.00 0.00 26 996.5
20220703053504 98 306 3.0 12.0 0.00 0.00 0.00 26 996.4
20220703053404 98 290 10.0 12.0 0.00 0.00 0.00 26 996.5
20220703053303 98 305 9.0 12.0 0.00 0.00 0.00 26 996.5
20220703053205 98 306 10.0 13.0 0.00 0.00 0.00 26 996.5
20220703053103 98 301 8.0 13.0 0.00 0.00 0.00 28 996.4
20220703053005 98 337 4.0 13.0 0.00 0.00 0.00 27 996.4
20220703052903 98 319 6.0 13.0 0.00 0.00 0.00 26 996.4
20220703052807 98 290 10.0 13.0 0.00 0.00 0.00 27 996.5
20220703052706 98 315 5.0 13.0 0.00 0.00 0.00 27 996.4
20220703052603 98 309 5.0 13.0 0.00 0.00 0.00 27 996.5
20220703052505 98 344 10.0 13.0 0.00 0.00 0.00 27 996.4
20220703052403 98 271 9.0 13.0 0.00 0.00 0.00 28 996.4
20220703052305 98 325 5.0 13.0 0.00 0.00 0.00 27 996.4
20220703052203 98 290 3.0 13.0 0.00 0.00 0.00 28 996.4
20220703052104 98 305 8.0 13.0 0.00 0.00 0.00 28 996.5
20220703052005 98 312 10.0 13.0 0.00 0.00 0.00 27 996.5
20220703051906 98 336 5.0 13.0 0.00 0.00 0.00 27 996.5
20220703051803 98 291 8.0 13.0 0.00 0.00 0.00 27 996.4
20220703051703 97 312 6.0 13.0 0.00 0.00 0.00 27 996.5
20220703051603 97 307 5.0 13.0 0.00 0.00 0.00 27 996.4
20220703051506 97 306 5.0 13.0 0.00 0.00 0.00 28 996.5
20220703051403 97 314 10.0 13.0 0.00 0.00 0.00 27 996.4
20220703051302 97 307 7.0 13.0 0.00 0.00 0.00 28 996.4
20220703051203 97 315 3.0 13.0 0.00 0.00 0.00 28 996.4
20220703051106 97 320 11.0 11.0 0.00 0.00 0.00 28 996.5
20220703051005 97 319 9.0 11.0 0.00 0.00 0.00 28 996.4
20220703050905 97 308 4.0 11.0 0.00 0.00 0.00 28 996.4
20220703050803 97 313 10.0 11.0 0.00 0.00 0.00 27 996.4
20220703050706 97 300 5.0 11.0 0.00 0.00 0.00 27 996.4
20220703050604 97 290 9.0 12.0 0.00 0.00 0.00 27 996.4
20220703050503 97 321 4.0 12.0 0.00 0.00 0.00 27 996.4
20220703050407 97 319 9.0 12.0 0.00 0.00 0.00 28 996.4
20220703050304 97 316 6.0 12.0 0.00 0.00 0.00 28 996.3
20220703050203 97 326 6.0 12.0 0.00 0.00 0.00 27 996.4
20220703050104 97 279 8.0 12.0 0.00 0.00 0.00 28 996.3
20220703050010 97 312 6.0 12.0 0.00 0.00 0.00 28 996.4
20220703045904 97 303 5.0 13.0 0.00 0.00 0.00 28 996.4
20220703045803 97 295 3.0 13.0 0.00 0.00 0.00 27 996.4
20220703045704 97 264 12.0 13.0 0.00 0.00 0.00 27 996.4
20220703045607 97 289 7.0 13.0 0.00 0.00 0.00 28 996.4
20220703045504 97 309 9.0 13.0 0.00 0.00 0.00 28 996.4
20220703045403 97 304 5.0 13.0 0.00 0.00 0.00 28 996.4
20220703045306 97 332 4.0 13.0 0.00 0.00 0.00 28 996.3
20220703045203 97 298 3.0 13.0 0.00 0.00 0.00 27 996.4
20220703045103 97 292 4.0 13.0 0.00 0.00 0.00 27 996.4
20220703045005 97 294 5.0 11.0 0.00 0.00 0.00 27 996.4
20220703044906 97 304 10.0 11.0 0.00 0.00 0.00 28 996.4
20220703044805 97 284 6.0 11.0 0.00 0.00 0.00 28 996.3
20220703044703 97 295 5.0 12.0 0.00 0.00 0.00 29 996.4
20220703044603 97 290 4.0 12.0 0.00 0.00 0.00 28 996.3
20220703044508 97 327 6.0 12.0 0.00 0.00 0.00 28 996.2
20220703044403 97 286 4.0 12.0 0.00 0.00 0.00 27 996.3
20220703044303 97 323 5.0 12.0 0.00 0.00 0.00 27 996.4
20220703044206 97 313 3.0 12.0 0.00 0.00 0.00 27 996.3
20220703044103 97 283 6.0 12.0 0.00 0.00 0.00 27 996.3
20220703044007 97 304 8.0 12.0 0.00 0.00 0.00 27 996.2
20220703043906 97 314 6.0 12.0 0.00 0.00 0.00 27 996.2
20220703043803 97 304 4.0 11.0 0.00 0.00 0.00 28 996.3
20220703043703 97 317 4.0 10.0 0.00 0.00 0.00 27 996.2
20220703043603 97 311 6.0 10.0 0.00 0.00 0.00 28 996.2
20220703043507 97 319 3.0 10.0 0.00 0.00 0.00 28 996.2
20220703043404 97 306 4.0 10.0 0.00 0.00 0.00 28 996.2
20220703043303 96 298 7.0 10.0 0.00 0.00 0.00 27 996.2
20220703043203 97 321 8.0 10.0 0.00 0.00 0.00 28 996.2
20220703043106 96 316 3.0 10.0 0.00 0.00 0.00 28 996.2
20220703043008 96 317 4.0 10.0 0.00 0.00 0.00 28 996.2
20220703042903 96 313 5.0 10.0 0.00 0.00 0.00 28 996.2
20220703042804 96 286 4.0 10.0 0.00 0.00 0.00 28 996.2
20220703042706 96 302 4.0 10.0 0.00 0.00 0.00 28 996.2
20220703042606 96 289 7.0 10.0 0.00 0.00 0.00 28 996.2
20220703042504 96 315 4.0 9.0 0.00 0.00 0.00 29 996.2
20220703042404 96 303 7.0 9.0 0.00 0.00 0.00 29 996.3
20220703042303 96 303 3.0 9.0 0.00 0.00 0.00 29 996.3
20220703042206 96 301 5.0 9.0 0.00 0.00 0.00 28 996.2
20220703042103 96 331 6.0 9.0 0.00 0.00 0.00 28 996.3
20220703042005 96 323 5.0 10.0 0.00 0.00 0.00 28 996.2
20220703041903 96 320 3.0 10.0 0.00 0.00 0.00 29 996.3
20220703041806 96 304 3.0 10.0 0.00 0.00 0.00 28 996.2
20220703041702 96 333 5.0 10.0 0.00 0.00 0.00 28 996.1
20220703041603 96 296 9.0 10.0 0.00 0.00 0.00 29 996.2
20220703041503 96 304 3.0 10.0 0.00 0.00 0.00 29 996.2
20220703041407 96 300 4.0 10.0 0.00 0.00 0.00 29 996.2
20220703041303 96 305 4.0 10.0 0.00 0.00 0.00 28 996.3
20220703041203 95 317 5.0 10.0 0.00 0.00 0.00 29 996.2
20220703041103 95 294 9.0 10.0 0.00 0.00 0.00 29 996.2
20220703041008 95 296 4.0 10.0 0.00 0.00 0.00 29 996.2
20220703040903 95 292 3.0 10.0 0.00 0.00 0.00 29 996.3
20220703040803 95 297 5.0 10.0 0.00 0.00 0.00 29 996.3
20220703040703 95 288 5.0 10.0 0.00 0.00 0.00 29 996.3
20220703040606 95 308 4.0 10.0 0.00 0.00 0.00 29 996.3
20220703040505 95 306 5.0 10.0 0.00 0.00 0.00 29 996.3
20220703040404 95 318 3.0 10.0 0.00 0.00 0.00 29 996.4
20220703040303 95 312 3.0 10.0 0.00 0.00 0.00 30 996.3
20220703040206 95 307 1.0 10.0 0.00 0.00 0.00 30 996.3
20220703040103 95 330 6.0 10.0 0.00 0.00 0.00 29 996.2
20220703040008 95 300 4.0 10.0 0.00 0.00 0.00 29 996.3
20220703035908 95 300 4.0 10.0 0.00 0.00 0.00 29 996.3
20220703035803 95 305 4.0 10.0 0.00 0.00 0.00 29 996.3
20220703035704 95 315 5.0 10.0 0.00 0.00 0.00 29 996.2
20220703035603 95 308 3.0 10.0 0.00 0.00 0.00 29 996.3
20220703035506 95 295 5.0 10.0 0.00 0.00 0.00 29 996.2
20220703035403 95 303 5.0 10.0 0.00 0.00 0.00 29 996.2
20220703035303 95 311 4.0 10.0 0.00 0.00 0.00 29 996.1
20220703035203 95 304 7.0 10.0 0.00 0.00 0.00 29 996.2
20220703035107 95 290 7.0 10.0 0.00 0.00 0.00 29 996.2
20220703035006 95 281 6.0 10.0 0.00 0.00 0.00 29 996.2
20220703034903 95 306 7.0 10.0 0.00 0.00 0.00 29 996.2
20220703034803 95 309 4.0 10.0 0.00 0.00 0.00 29 996.2
20220703034706 95 305 7.0 10.0 0.00 0.00 0.00 29 996.2
20220703034606 95 300 2.0 10.0 0.00 0.00 0.00 29 996.2
20220703034504 95 309 3.0 10.0 0.00 0.00 0.00 29 996.2
20220703034404 95 302 5.0 10.0 0.00 0.00 0.00 29 996.1
20220703034303 95 311 2.0 10.0 0.00 0.00 0.00 29 996.1
20220703034206 95 306 3.0 10.0 0.00 0.00 0.00 29 996.1
20220703034103 95 290 5.0 10.0 0.00 0.00 0.00 29 996.1
20220703034006 95 309 4.0 10.0 0.00 0.00 0.00 29 996.1
20220703033903 95 300 3.0 10.0 0.00 0.00 0.00 29 996.1
20220703033806 95 298 3.0 10.0 0.00 0.00 0.00 29 996.1
20220703033704 95 313 6.0 10.0 0.00 0.00 0.00 29 996.1
20220703033603 95 302 5.0 10.0 0.00 0.00 0.00 29 996.1
20220703033505 95 302 5.0 10.0 0.00 0.00 0.00 29 996.1
20220703033406 95 298 4.0 10.0 0.00 0.00 0.00 29 996.2
20220703033303 95 317 4.0 10.0 0.00 0.00 0.00 29 996.1
20220703033203 95 329 6.0 9.0 0.00 0.00 0.00 29 996.2
20220703033106 95 309 2.0 9.0 0.00 0.00 0.00 29 996.1
20220703033005 95 294 5.0 10.0 0.00 0.00 0.00 29 996.2
20220703032903 95 298 7.0 10.0 0.00 0.00 0.00 29 996.1
20220703032803 95 290 4.0 10.0 0.00 0.00 0.00 29 996.1
20220703032706 95 280 1.0 10.0 0.00 0.00 0.00 29 996.2
20220703032603 95 307 5.0 10.0 0.00 0.00 0.00 29 996.2
20220703032504 95 303 2.0 10.0 0.00 0.00 0.00 29 996.2
20220703032403 95 306 2.0 10.0 0.00 0.00 0.00 29 996.2
20220703032306 94 305 4.0 10.0 0.00 0.00 0.00 29 996.2
20220703032203 94 298 3.0 10.0 0.00 0.00 0.00 29 996.2
20220703032103 94 300 9.0 9.0 0.00 0.00 0.00 29 996.2
20220703032008 94 275 7.0 9.0 0.00 0.00 0.00 29 996.2
20220703031907 94 323 4.0 9.0 0.00 0.00 0.00 29 996.2
20220703031803 94 300 5.0 8.0 0.00 0.00 0.00 29 996.2
20220703031704 94 290 5.0 8.0 0.00 0.00 0.00 30 996.2
20220703031604 94 296 4.0 9.0 0.00 0.00 0.00 29 996.2
20220703031508 94 292 5.0 10.0 0.00 0.00 0.00 30 996.2
20220703031403 94 300 5.0 10.0 0.00 0.00 0.00 30 996.2
20220703031303 94 296 2.0 10.0 0.00 0.00 0.00 30 996.1
20220703031203 94 296 2.0 10.0 0.00 0.00 0.00 30 996.1
20220703031106 94 295 8.0 10.0 0.00 0.00 0.00 30 996.2
20220703031005 94 288 4.0 10.0 0.00 0.00 0.00 30 996.1
20220703030903 94 281 3.0 10.0 0.00 0.00 0.00 30 996.1
20220703030803 94 302 9.0 10.0 0.00 0.00 0.00 30 996.1
20220703030706 94 254 5.0 10.0 0.00 0.00 0.00 30 996.1
20220703030604 94 299 9.0 9.0 0.00 0.00 0.00 30 996.1
20220703030504 94 301 5.0 9.0 0.00 0.00 0.00 30 996.1
20220703030408 94 290 4.0 11.0 0.00 0.00 0.00 30 996.1
20220703030303 94 296 8.0 11.0 0.00 0.00 0.00 30 996.1
20220703030203 94 302 5.0 11.0 0.00 0.00 0.00 30 996.1
20220703030103 94 296 5.0 11.0 0.00 0.00 0.00 30 996.1
20220703030012 94 298 3.0 11.0 0.00 0.00 0.00 30 996.2
20220703025903 94 299 3.0 11.0 0.00 0.00 0.00 30 996.1
20220703025803 94 300 8.0 11.0 0.00 0.00 0.00 30 996.2
20220703025706 94 325 3.0 11.0 0.00 0.00 0.00 30 996.1
20220703025603 94 307 9.0 10.0 0.00 0.00 0.00 30 996.2
20220703025504 94 287 4.0 10.0 0.00 0.00 0.00 30 996.2
20220703025403 94 288 7.0 10.0 0.00 0.00 0.00 30 996.1
20220703025306 94 296 4.0 10.0 0.00 0.00 0.00 31 996.1
20220703025203 94 306 4.0 10.0 0.00 0.00 0.00 31 996.1
20220703025103 94 298 5.0 10.0 0.00 0.00 0.00 31 996.2
20220703025009 94 311 3.0 10.0 0.00 0.00 0.00 31 996.2
20220703024906 94 298 4.0 10.0 0.00 0.00 0.00 31 996.1
20220703024804 94 312 2.0 10.0 0.00 0.00 0.00 31 996.2
20220703024703 94 294 4.0 11.0 0.00 0.00 0.00 31 996.2
20220703024603 94 296 7.0 11.0 0.00 0.00 0.00 31 996.1
20220703024506 94 302 8.0 11.0 0.00 0.00 0.00 30 996.1
20220703024403 94 306 3.0 11.0 0.00 0.00 0.00 31 996.2
20220703024303 94 306 5.0 11.0 0.00 0.00 0.00 30 996.1
20220703024203 94 305 4.0 11.0 0.00 0.00 0.00 30 996.1
20220703024106 94 292 8.0 11.0 0.00 0.00 0.00 30 996.1
20220703024006 94 298 5.0 11.0 0.00 0.00 0.00 30 996.0
20220703023903 94 311 2.0 11.0 0.00 0.00 0.00 30 996.1
20220703023802 94 312 4.0 10.0 0.00 0.00 0.00 30 996.1
20220703023706 94 291 8.0 10.0 0.00 0.00 0.00 30 996.2
20220703023604 94 309 3.0 10.0 0.00 0.00 0.00 30 996.1
20220703023504 94 311 3.0 10.0 0.00 0.00 0.00 30 996.0
20220703023404 94 305 4.0 13.0 0.00 0.00 0.00 30 996.0
20220703023306 94 297 4.0 13.0 0.00 0.00 0.00 30 996.1
20220703023206 94 298 3.0 13.0 0.00 0.00 0.00 30 996.0
20220703023103 94 292 7.0 13.0 0.00 0.00 0.00 30 996.0
20220703023007 94 303 5.0 13.0 0.00 0.00 0.00 30 996.0
20220703022903 94 306 4.0 13.0 0.00 0.00 0.00 30 996.0
20220703022808 94 309 3.0 13.0 0.00 0.00 0.00 30 996.0
20220703022703 94 333 6.0 13.0 0.00 0.00 0.00 30 996.0
20220703022603 94 295 7.0 13.0 0.00 0.00 0.00 30 996.0
20220703022504 94 302 10.0 12.0 0.00 0.00 0.00 30 996.1
20220703022405 94 322 5.0 12.0 0.00 0.00 0.00 30 996.0
20220703022303 94 309 3.0 12.0 0.00 0.00 0.00 30 996.0
20220703022203 94 315 4.0 12.0 0.00 0.00 0.00 30 996.0
20220703022105 94 319 3.0 12.0 0.00 0.00 0.00 30 996.0
20220703022009 94 283 7.0 12.0 0.00 0.00 0.00 29 996.0
20220703021903 94 314 6.0 12.0 0.00 0.00 0.00 29 996.0
20220703021804 94 308 7.0 12.0 0.00 0.00 0.00 30 996.0
20220703021706 94 298 7.0 11.0 0.00 0.00 0.00 29 996.0
20220703021603 94 306 5.0 11.0 0.00 0.00 0.00 29 996.0
20220703021504 94 295 8.0 11.0 0.00 0.00 0.00 30 996.0
20220703021403 94 316 6.0 11.0 0.00 0.00 0.00 30 996.0
20220703021306 94 306 8.0 11.0 0.00 0.00 0.00 29 996.0
20220703021203 94 286 4.0 11.0 0.00 0.00 0.00 30 996.1
20220703021103 94 294 5.0 11.0 0.00 0.00 0.00 30 996.0
20220703021005 94 295 5.0 11.0 0.00 0.00 0.00 30 996.0
20220703020906 94 302 5.0 11.0 0.00 0.00 0.00 30 996.1
20220703020803 94 326 5.0 11.0 0.00 0.00 0.00 29 996.1
20220703020703 94 309 8.0 11.0 0.00 0.00 0.00 29 996.0
20220703020603 94 317 3.0 11.0 0.00 0.00 0.00 29 996.0
20220703020506 94 313 4.0 11.0 0.00 0.00 0.00 29 996.1
20220703020404 94 277 6.0 11.0 0.00 0.00 0.00 30 996.0
20220703020303 94 314 6.0 12.0 0.00 0.00 0.00 30 996.0
20220703020203 94 309 5.0 12.0 0.00 0.00 0.00 29 996.0
20220703020106 94 308 4.0 12.0 0.00 0.00 0.00 29 996.0
20220703020007 94 317 6.0 12.0 0.00 0.00 0.00 29 996.0
20220703015903 94 319 1.0 12.0 0.00 0.00 0.00 29 996.0
20220703015805 94 309 5.0 12.0 0.00 0.00 0.00 29 996.0
20220703015703 94 309 1.0 12.0 0.00 0.00 0.00 29 996.0
20220703015603 94 269 8.0 12.0 0.00 0.00 0.00 29 996.0
20220703015505 94 319 5.0 12.0 0.00 0.00 0.00 30 996.1
20220703015406 94 277 8.0 11.0 0.00 0.00 0.00 30 996.0
20220703015304 94 303 8.0 11.0 0.00 0.00 0.00 30 995.8
20220703015203 94 344 8.0 11.0 0.00 0.00 0.00 29 995.9
20220703015103 94 296 4.0 11.0 0.00 0.00 0.00 29 995.8
20220703015009 94 309 9.0 11.0 0.00 0.00 0.00 29 995.9
20220703014903 94 308 5.0 10.0 0.00 0.00 0.00 29 995.9
20220703014803 94 304 4.0 12.0 0.00 0.00 0.00 29 995.8
20220703014707 94 300 3.0 12.0 0.00 0.00 0.00 29 995.8
20220703014603 94 314 5.0 12.0 0.00 0.00 0.00 29 995.9
20220703014504 95 296 9.0 12.0 0.00 0.00 0.00 29 995.9
20220703014405 95 298 5.0 13.0 0.00 0.00 0.00 30 995.8
20220703014306 95 323 3.0 13.0 0.00 0.00 0.00 30 995.8
20220703014203 95 325 2.0 13.0 0.00 0.00 0.00 29 995.8
20220703014105 94 305 3.0 13.0 0.00 0.00 0.00 29 995.8
20220703014004 94 325 4.0 13.0 0.00 0.00 0.00 29 995.8
20220703013906 94 284 10.0 13.0 0.00 0.00 0.00 30 995.8
20220703013804 95 331 2.0 13.0 0.00 0.00 0.00 30 995.7
20220703013704 95 342 5.0 13.0 0.00 0.00 0.00 29 995.7
20220703013603 95 304 7.0 13.0 0.00 0.00 0.00 29 995.7
20220703013507 95 288 10.0 11.0 0.00 0.00 0.00 30 995.7
20220703013404 95 331 8.0 11.0 0.00 0.00 0.00 30 995.7
20220703013303 95 315 5.0 11.0 0.00 0.00 0.00 30 995.7
20220703013203 95 290 5.0 11.0 0.00 0.00 0.00 30 995.7
20220703013106 95 317 6.0 11.0 0.00 0.00 0.00 31 995.6
20220703013005 95 301 7.0 12.0 0.00 0.00 0.00 31 995.6
20220703012903 95 334 10.0 12.0 0.00 0.00 0.00 30 995.6
20220703012803 94 309 3.0 12.0 0.00 0.00 0.00 30 995.7
20220703012706 95 310 7.0 12.0 0.00 0.00 0.00 31 995.6
20220703012603 94 311 3.0 12.0 0.00 0.00 0.00 31 995.5
20220703012504 95 314 6.0 12.0 0.00 0.00 0.00 31 995.6
20220703012403 95 304 5.0 12.0 0.00 0.00 0.00 33 995.5
20220703012305 95 321 5.0 12.0 0.00 0.00 0.00 32 995.7
20220703012204 95 336 10.0 12.0 0.00 0.00 0.00 31 995.5
20220703012103 95 329 8.0 12.0 0.00 0.00 0.00 32 995.5
20220703012006 95 301 3.0 12.0 0.00 0.00 0.00 31 995.5
20220703011905 95 5 3.0 12.0 0.00 0.00 0.00 32 995.5
20220703011803 95 300 5.0 13.0 0.00 0.00 0.00 32 995.5
20220703011703 95 343 10.0 13.0 0.00 0.00 0.00 31 995.5
20220703011604 95 321 2.0 13.0 0.00 0.00 0.00 32 995.4
20220703011506 95 314 9.0 13.0 0.00 0.00 0.00 32 995.5
20220703011402 95 329 5.0 13.0 0.00 0.00 0.00 32 995.6
20220703011304 95 324 8.0 13.0 0.00 0.00 0.00 31 995.5
20220703011202 95 313 6.0 13.0 0.00 0.00 0.00 31 995.4
20220703011105 95 296 7.0 13.0 0.00 0.00 0.00 31 995.4
20220703011006 95 310 5.0 13.0 0.00 0.00 0.00 31 995.4
20220703010903 95 313 10.0 13.0 0.00 0.00 0.00 32 995.4
20220703010803 95 360 9.0 13.0 0.00 0.00 0.00 33 995.4
20220703010707 95 326 3.0 13.0 0.00 0.00 0.00 31 995.4
20220703010604 95 329 4.0 13.0 0.00 0.00 0.00 31 995.4
20220703010504 95 321 9.0 14.0 0.00 0.00 0.00 32 995.4
20220703010407 95 321 13.0 14.0 0.00 0.00 0.00 31 995.4
20220703010304 95 298 4.0 14.0 0.00 0.00 0.00 32 995.4
20220703010204 95 318 10.0 14.0 0.00 0.00 0.00 32 995.4
20220703010106 95 302 7.0 14.0 0.00 0.00 0.00 32 995.4
20220703010007 94 322 4.0 14.0 0.00 0.00 0.00 33 995.4
20220703005902 94 334 10.0 14.0 0.00 0.00 0.00 33 995.3
20220703005805 94 303 4.0 14.0 0.00 0.00 0.00 33 995.3
20220703005705 94 319 10.0 15.0 0.00 0.00 0.00 33 995.4
20220703005602 94 333 8.0 15.0 0.00 0.00 0.00 34 995.4
20220703005504 94 329 11.0 15.0 0.00 0.00 0.00 35 995.4
20220703005403 95 295 4.0 15.0 0.00 0.00 0.00 36 995.3
20220703005304 95 317 9.0 15.0 0.00 0.00 0.00 34 995.4
20220703005202 95 315 10.0 15.0 0.00 0.00 0.00 34 995.4
20220703005102 95 299 8.0 15.0 0.00 0.00 0.00 34 995.4
20220703005004 95 313 11.0 15.0 0.00 0.00 0.00 33 995.4
20220703004905 95 312 8.0 15.0 0.00 0.00 0.00 34 995.4
20220703004802 95 360 8.0 14.0 0.00 0.00 0.00 34 995.4
20220703004702 95 317 10.0 14.0 0.00 0.00 0.00 34 995.4
20220703004602 95 315 5.0 14.0 0.00 0.00 0.00 34 995.3
20220703004506 95 319 6.0 14.0 0.00 0.00 0.00 33 995.4
20220703004402 95 306 9.0 14.0 0.00 0.00 0.00 32 995.4
20220703004302 95 315 13.0 14.0 0.00 0.00 0.00 32 995.4
20220703004205 95 294 8.0 15.0 0.00 0.00 0.00 33 995.3
20220703004102 95 355 4.0 15.0 0.00 0.00 0.00 32 995.4
20220703004004 95 321 13.0 15.0 0.00 0.00 0.00 32 995.3
20220703003902 95 315 8.0 17.0 0.00 0.00 0.00 33 995.4
20220703003805 95 319 10.0 17.0 0.00 0.00 0.00 33 995.4
20220703003702 95 309 10.0 17.0 0.00 0.00 0.00 33 995.4
20220703003602 95 327 11.0 17.0 0.00 0.00 0.00 35 995.4
20220703003503 95 335 6.0 17.0 0.00 0.00 0.00 35 995.3
20220703003405 95 327 9.0 17.0 0.00 0.00 0.00 32 995.4
20220703003303 95 325 12.0 17.0 0.00 0.00 0.00 34 995.3
20220703003202 95 267 11.0 17.0 0.00 0.00 0.00 34 995.3
20220703003102 95 321 9.0 17.0 0.00 0.00 0.00 34 995.4
20220703003007 95 5 6.0 17.0 0.00 0.00 0.00 33 995.4
20220703002902 95 337 4.0 17.0 0.00 0.00 0.00 33 995.5
20220703002802 95 325 10.0 17.0 0.00 0.00 0.00 33 995.4
20220703002702 95 298 9.0 17.0 0.00 0.00 0.00 34 995.4
20220703002605 95 327 9.0 16.0 0.00 0.00 0.00 34 995.4
20220703002503 95 290 4.0 16.0 0.00 0.00 0.00 36 995.4
20220703002402 95 335 10.0 16.0 0.00 0.00 0.00 37 995.3
20220703002302 95 319 6.0 16.0 0.00 0.00 0.00 36 995.4
20220703002205 95 299 8.0 16.0 0.00 0.00 0.00 36 995.4
20220703002103 95 348 6.0 16.0 0.00 0.00 0.00 34 995.4
20220703002003 95 311 8.0 16.0 0.00 0.00 0.00 33 995.3
20220703001902 95 312 12.0 16.0 0.00 0.00 0.00 35 995.4
20220703001805 95 298 9.0 16.0 0.00 0.00 0.00 36 995.3
20220703001702 95 303 7.0 16.0 0.00 0.00 0.00 37 995.3
20220703001602 95 327 6.0 16.0 0.00 0.00 0.00 37 995.4
20220703001504 95 327 4.0 16.0 0.00 0.00 0.00 35 995.4
20220703001405 95 325 10.0 16.0 0.00 0.00 0.00 34 995.4
20220703001302 95 315 11.0 16.0 0.00 0.00 0.00 34 995.4
20220703001202 95 319 6.0 16.0 0.00 0.00 0.00 34 995.5
20220703001102 95 17 9.0 16.0 0.00 0.00 0.00 33 995.4
20220703001007 95 329 11.0 14.0 0.00 0.00 0.00 33 995.4
20220703000902 95 317 9.0 17.0 0.00 0.00 0.00 35 995.3
20220703000802 95 290 10.0 17.0 0.00 0.00 0.00 36 995.3
20220703000703 95 317 11.0 17.0 0.00 0.00 0.00 37 995.3
20220703000604 95 299 4.0 17.0 0.00 0.00 0.00 37 995.3
20220703000502 95 328 10.0 17.0 0.00 0.00 0.00 36 995.3
20220703000402 95 317 9.0 17.0 0.00 0.00 0.00 36 995.3
20220703000302 96 317 9.0 17.0 0.00 0.00 0.00 35 995.3
20220703000206 96 323 6.0 17.0 0.00 0.00 0.00 35 995.3
20220703000102 95 312 6.0 17.0 0.00 0.00 0.00 33 995.2
20220703000007 95 317 14.0 17.0 0.00 0.00 0.00 33 995.3
20220702235905 96 294 12.0 14.0 0.00 0.00 0.00 33 995.2
20220702235802 96 309 11.0 14.0 0.00 0.00 0.00 35 995.2
20220702235702 96 293 5.0 13.0 0.00 0.00 0.00 34 995.1
20220702235602 96 306 11.0 18.0 0.00 0.00 0.00 33 995.1
20220702235507 96 304 7.0 18.0 0.00 0.00 0.00 33 995.2
20220702235402 96 332 5.0 18.0 0.00 0.00 0.00 33 995.1
20220702235302 96 325 5.0 18.0 0.00 0.00 0.00 33 995.1
20220702235202 96 284 6.0 18.0 0.00 0.00 0.00 33 995.1
20220702235106 96 317 11.0 18.0 0.00 0.00 0.00 34 995.2
20220702235004 96 333 8.0 18.0 0.00 0.00 0.00 34 995.1
20220702234902 96 319 9.0 18.0 0.00 0.00 0.00 33 995.1
20220702234805 96 317 9.0 18.0 0.00 0.00 0.00 32 995.2
20220702234703 96 323 9.0 16.0 0.00 0.00 0.00 35 995.2
20220702234603 96 323 4.0 16.0 0.00 0.00 0.00 35 995.1
20220702234503 96 304 7.0 16.0 0.00 0.00 0.00 33 995.1
20220702234405 96 337 4.0 16.0 0.00 0.00 0.00 32 995.1
20220702234302 96 308 13.0 16.0 0.00 0.00 0.00 33 995.2
20220702234203 96 339 10.0 16.0 0.00 0.00 0.00 32 995.2
20220702234103 96 299 12.0 16.0 0.00 0.00 0.00 35 995.2
20220702234007 96 340 10.0 16.0 0.00 0.00 0.00 31 995.2
20220702233903 96 319 13.0 16.0 0.00 0.00 0.00 31 995.2
20220702233803 96 308 8.0 16.0 0.00 0.00 0.00 33 995.2
20220702233703 96 335 5.0 16.0 0.00 0.00 0.00 32 995.2
20220702233605 96 316 10.0 16.0 0.00 0.00 0.00 33 995.2
20220702233504 96 323 9.0 15.0 0.00 0.00 0.00 34 995.3
20220702233403 96 315 10.0 15.0 0.00 0.00 0.00 35 995.2
20220702233302 96 321 12.0 15.0 0.00 0.00 0.00 34 995.2
20220702233205 96 320 8.0 15.0 0.00 0.00 0.00 34 995.1
20220702233102 96 319 9.0 15.0 0.00 0.00 0.00 32 995.2
20220702233008 96 336 10.0 15.0 0.00 0.00 0.00 33 995.2
20220702232903 96 305 10.0 15.0 0.00 0.00 0.00 31 995.1
20220702232802 96 302 10.0 15.0 0.00 0.00 0.00 31 995.1
20220702232702 96 330 11.0 15.0 0.00 0.00 0.00 32 995.2
20220702232605 96 311 8.0 15.0 0.00 0.00 0.00 32 995.2
20220702232504 96 327 5.0 15.0 0.00 0.00 0.00 31 995.2
20220702232403 96 333 12.0 14.0 0.00 0.00 0.00 34 995.2
20220702232302 96 317 9.0 14.0 0.00 0.00 0.00 32 995.2
20220702232205 96 311 13.0 14.0 0.00 0.00 0.00 33 995.2
20220702232102 96 313 3.0 14.0 0.00 0.00 0.00 32 995.2
20220702232006 96 347 9.0 14.0 0.00 0.00 0.00 33 995.2
20220702231903 96 319 9.0 14.0 0.00 0.00 0.00 32 995.3
20220702231805 96 286 9.0 14.0 0.00 0.00 0.00 33 995.2
20220702231702 96 319 11.0 14.0 0.00 0.00 0.00 33 995.3
20220702231602 96 327 6.0 14.0 0.00 0.00 0.00 32 995.3
20220702231502 96 331 6.0 15.0 0.00 0.00 0.00 33 995.3
20220702231404 96 317 10.0 15.0 0.00 0.00 0.00 34 995.3
20220702231302 96 338 11.0 15.0 0.00 0.00 0.00 35 995.3
20220702231202 96 355 11.0 15.0 0.00 0.00 0.00 34 995.3
20220702231103 96 328 9.0 15.0 0.00 0.00 0.00 35 995.5
20220702231008 96 325 14.0 15.0 0.00 0.00 0.00 34 995.4
20220702230902 96 313 10.0 15.0 0.00 0.00 0.00 33 995.4
20220702230803 96 326 8.0 15.0 0.00 0.00 0.00 34 995.4
20220702230702 96 328 9.0 15.0 0.00 0.00 0.00 34 995.4
20220702230605 96 325 11.0 16.0 0.00 0.00 0.00 35 995.4
20220702230503 96 331 9.0 16.0 0.00 0.00 0.00 34 995.4
20220702230402 96 330 6.0 16.0 0.00 0.00 0.00 33 995.5
20220702230301 96 310 10.0 16.0 0.00 0.00 0.00 34 995.4
20220702230204 96 319 9.0 16.0 0.00 0.00 0.00 35 995.3
20220702230102 96 355 6.0 16.0 0.00 0.00 0.00 35 995.3
20220702230006 96 300 11.0 16.0 0.00 0.00 0.00 35 995.3
20220702225905 96 324 11.0 16.0 0.00 0.00 0.00 34 995.4
20220702225802 96 322 5.0 16.0 0.00 0.00 0.00 33 995.4
20220702225703 96 298 8.0 15.0 0.00 0.00 0.00 34 995.4
20220702225602 96 286 6.0 15.0 0.00 0.00 0.00 35 995.3
20220702225507 96 325 12.0 15.0 0.00 0.00 0.00 34 995.4
20220702225402 96 329 11.0 15.0 0.00 0.00 0.00 35 995.4
20220702225302 96 328 12.0 15.0 0.00 0.00 0.00 34 995.3
20220702225207 96 321 9.0 15.0 0.00 0.00 0.00 34 995.4
20220702225105 96 319 12.0 15.0 0.00 0.00 0.00 35 995.4
20220702225004 96 338 11.0 15.0 0.00 0.00 0.00 35 995.4
20220702224904 96 321 8.0 15.0 0.00 0.00 0.00 33 995.3
20220702224803 96 315 8.0 13.0 0.00 0.00 0.00 33 995.3
20220702224704 96 324 8.0 17.0 0.00 0.00 0.00 32 995.3
20220702224602 97 343 9.0 17.0 0.00 0.00 0.00 33 995.3
20220702224503 97 335 8.0 17.0 0.00 0.00 0.00 35 995.3
20220702224402 97 306 3.0 17.0 0.00 0.00 0.00 35 995.3
20220702224305 97 310 11.0 17.0 0.00 0.00 0.00 33 995.3
20220702224202 97 328 8.0 17.0 0.00 0.00 0.00 33 995.3
20220702224103 97 315 6.0 17.0 0.00 0.00 0.00 32 995.2
20220702224004 97 326 9.0 17.0 0.00 0.00 0.00 31 995.2
20220702223904 97 298 8.0 17.0 0.00 0.00 0.00 31 995.3
20220702223802 96 309 14.0 16.0 0.00 0.00 0.00 32 995.2
20220702223702 96 330 10.0 16.0 0.00 0.00 0.00 32 995.3
20220702223602 96 313 13.0 15.0 0.00 0.00 0.00 34 995.3
20220702223506 96 331 9.0 15.0 0.00 0.00 0.00 34 995.2
20220702223403 96 325 6.0 15.0 0.00 0.00 0.00 34 995.2
20220702223302 97 305 11.0 14.0 0.00 0.00 0.00 35 995.3
20220702223202 97 324 10.0 14.0 0.00 0.00 0.00 34 995.3
20220702223105 97 324 10.0 14.0 0.00 0.00 0.00 33 995.2
20220702223005 97 336 13.0 14.0 0.00 0.00 0.00 33 995.3
20220702222903 97 315 9.0 14.0 0.00 0.00 0.00 34 995.2
20220702222803 97 328 8.0 14.0 0.00 0.00 0.00 34 995.2
20220702222704 97 296 10.0 14.0 0.00 0.00 0.00 33 995.3
20220702222603 97 317 9.0 14.0 0.00 0.00 0.00 33 995.3
20220702222503 97 315 11.0 14.0 0.00 0.00 0.00 34 995.2
20220702222402 97 327 5.0 14.0 0.00 0.00 0.00 32 995.3
20220702222305 97 311 11.0 14.0 0.00 0.00 0.00 33 995.2
20220702222202 97 331 9.0 14.0 0.00 0.00 0.00 33 995.3
20220702222102 97 327 8.0 14.0 0.00 0.00 0.00 33 995.2
20220702222003 97 319 9.0 14.0 0.00 0.00 0.00 33 995.2
20220702221904 97 321 8.0 13.0 0.00 0.00 0.00 31 995.3
20220702221802 97 324 9.0 15.0 0.00 0.00 0.00 33 995.3
20220702221702 97 318 11.0 15.0 0.00 0.00 0.00 33 995.3
20220702221603 97 320 11.0 15.0 0.00 0.00 0.00 32 995.3
20220702221507 97 321 6.0 15.0 0.00 0.00 0.00 32 995.3
20220702221402 97 317 10.0 16.0 0.00 0.00 0.00 34 995.4
20220702221305 97 298 8.0 16.0 0.00 0.00 0.00 34 995.3
20220702221204 97 312 8.0 16.0 0.00 0.00 0.00 33 995.4
20220702221102 97 333 12.0 16.0 0.00 0.00 0.00 33 995.4
20220702221003 97 312 11.0 16.0 0.00 0.00 0.00 32 995.4
20220702220905 97 346 6.0 16.0 0.00 0.00 0.00 32 995.3
20220702220802 97 328 8.0 16.0 0.00 0.00 0.00 32 995.3
20220702220702 97 330 9.0 16.0 0.00 0.00 0.00 32 995.3
20220702220604 97 301 10.0 16.0 0.00 0.00 0.00 32 995.3
20220702220505 97 313 5.0 13.0 0.00 0.00 0.00 31 995.4
20220702220403 97 296 9.0 13.0 0.00 0.00 0.00 32 995.3
20220702220302 98 344 11.0 13.0 0.00 0.00 0.00 33 995.5
20220702220202 98 351 11.0 16.0 0.00 0.00 0.00 32 995.4
20220702220105 98 307 13.0 16.0 0.00 0.00 0.00 32 995.4
20220702220006 98 329 8.0 16.0 0.00 0.00 0.00 31 995.5
20220702215902 98 329 9.0 16.0 0.00 0.00 0.00 31 995.4
20220702215804 98 301 11.0 16.0 0.00 0.00 0.00 32 995.4
20220702215702 98 313 10.0 16.0 0.00 0.00 0.00 31 995.4
20220702215602 98 315 8.0 16.0 0.00 0.00 0.00 31 995.3
20220702215502 98 323 9.0 16.0 0.00 0.00 0.00 31 995.3
20220702215405 98 331 4.0 16.0 0.00 0.00 0.00 32 995.4
20220702215302 98 309 10.0 16.0 0.00 0.00 0.00 32 995.4
20220702215202 98 327 11.0 16.0 0.00 0.00 0.00 31 995.4
20220702215102 98 327 8.0 16.0 0.00 0.00 0.00 32 995.4
20220702215007 98 333 9.0 16.0 0.00 0.00 0.00 30 995.4
20220702214906 98 323 12.0 16.0 0.00 0.00 0.00 30 995.4
20220702214805 98 327 9.0 16.0 0.00 0.00 0.00 31 995.4
20220702214705 98 325 6.0 16.0 0.00 0.00 0.00 30 995.4
20220702214609 98 317 6.0 16.0 0.00 0.00 0.00 30 995.4
20220702214506 98 326 9.0 16.0 0.00 0.00 0.00 30 995.4
20220702214405 98 326 12.0 14.0 0.00 0.00 0.00 30 995.4
20220702214305 98 304 9.0 14.0 0.00 0.00 0.00 31 995.4
20220702214207 98 309 3.0 14.0 0.00 0.00 0.00 30 995.4
20220702214105 98 319 6.0 14.0 0.00 0.00 0.00 30 995.5
20220702214007 98 340 11.0 14.0 0.00 0.00 0.00 31 995.5
20220702213905 98 300 9.0 14.0 0.00 0.00 0.00 31 995.5
20220702213810 98 331 10.0 14.0 0.00 0.00 0.00 31 995.5
20220702213705 98 325 11.0 14.0 0.00 0.00 0.00 31 995.4
20220702213605 98 306 7.0 14.0 0.00 0.00 0.00 31 995.5
20220702213509 98 320 6.0 14.0 0.00 0.00 0.00 31 995.6
20220702213405 98 311 4.0 14.0 0.00 0.00 0.00 30 995.6
20220702213305 98 326 8.0 14.0 0.00 0.00 0.00 29 995.6
20220702213205 98 318 6.0 13.0 0.00 0.00 0.00 31 995.6
20220702213107 98 341 9.0 14.0 0.00 0.00 0.00 31 995.6
20220702213007 98 323 6.0 14.0 0.00 0.00 0.00 31 995.6
20220702212905 98 326 6.0 15.0 0.00 0.00 0.00 32 995.6
20220702212804 98 321 5.0 15.0 0.00 0.00 0.00 31 995.5
20220702212708 98 306 4.0 15.0 0.00 0.00 0.00 30 995.6
20220702212607 98 304 10.0 15.0 0.00 0.00 0.00 31 995.5
20220702212505 98 338 8.0 15.0 0.00 0.00 0.00 31 995.6
20220702212405 98 306 7.0 15.0 0.00 0.00 0.00 31 995.5
20220702212308 98 296 11.0 15.0 0.00 0.00 0.00 31 995.5
20220702212209 98 304 5.0 15.0 0.00 0.00 0.00 31 995.6
20220702212105 98 331 9.0 15.0 0.00 0.00 0.00 31 995.6
20220702212008 97 315 13.0 14.0 0.00 0.00 0.00 32 995.5
20220702211905 98 301 9.0 14.0 0.00 0.00 0.00 32 995.6
20220702211807 97 315 6.0 14.0 0.00 0.00 0.00 32 995.6
20220702211705 97 279 7.0 14.0 0.00 0.00 0.00 32 995.6
20220702211605 97 325 6.0 15.0 0.00 0.00 0.00 32 995.6
20220702211505 97 316 11.0 15.0 0.00 0.00 0.00 32 995.6
20220702211408 97 320 10.0 15.0 0.00 0.00 0.00 32 995.6
20220702211305 97 335 9.0 15.0 0.00 0.00 0.00 32 995.5
20220702211205 97 289 9.0 15.0 0.00 0.00 0.00 33 995.5
20220702211105 97 323 6.0 15.0 0.00 0.00 0.00 32 995.6
20220702211011 97 313 14.0 15.0 0.00 0.00 0.00 32 995.6
20220702210905 97 332 9.0 15.0 0.00 0.00 0.00 31 995.6
20220702210804 97 319 9.0 15.0 0.00 0.00 0.00 32 995.6
20220702210705 97 325 8.0 16.0 0.00 0.00 0.00 32 995.6
20220702210607 97 313 9.0 16.0 0.00 0.00 0.00 32 995.5
20220702210505 97 333 9.0 16.0 0.00 0.00 0.00 32 995.6
20220702210405 97 306 8.0 16.0 0.00 0.00 0.00 33 995.6
20220702210305 97 317 6.0 16.0 0.00 0.00 0.00 33 995.6
20220702210208 98 314 8.0 16.0 0.00 0.00 0.00 32 995.6
20220702210105 98 337 11.0 16.0 0.00 0.00 0.00 32 995.6
20220702210011 98 309 9.0 16.0 0.00 0.00 0.00 32 995.6
20220702205905 98 305 14.0 16.0 0.00 0.00 0.00 33 995.6
20220702205808 98 326 8.0 15.0 0.00 0.00 0.00 32 995.6
20220702205706 98 326 13.0 15.0 0.00 0.00 0.00 31 995.6
20220702205606 98 321 13.0 15.0 0.00 0.00 0.00 31 995.7
20220702205509 98 329 12.0 14.0 0.00 0.00 0.00 32 995.6
20220702205405 98 325 6.0 14.0 0.00 0.00 0.00 32 995.6
20220702205305 98 320 6.0 14.0 0.00 0.00 0.00 32 995.6
20220702205205 98 301 7.0 14.0 0.00 0.00 0.00 32 995.6
20220702205108 98 315 10.0 15.0 0.00 0.00 0.00 31 995.6
20220702205006 98 329 12.0 15.0 0.00 0.00 0.00 31 995.6
20220702204905 98 319 12.0 15.0 0.00 0.00 0.00 31 995.7
20220702204804 98 303 11.0 15.0 0.00 0.00 0.00 32 995.7
20220702204707 98 296 9.0 15.0 0.00 0.00 0.00 32 995.6
20220702204605 98 328 10.0 15.0 0.00 0.00 0.00 32 995.6
20220702204505 98 346 9.0 15.0 0.00 0.00 0.00 31 995.7
20220702204405 98 306 5.0 15.0 0.00 0.00 0.00 32 995.7
20220702204308 98 315 8.0 15.0 0.00 0.00 0.00 32 995.7
20220702204208 98 300 9.0 14.0 0.00 0.00 0.00 32 995.7
20220702204105 98 315 8.0 14.0 0.00 0.00 0.00 32 995.7
20220702204009 98 313 6.0 14.0 0.00 0.00 0.00 32 995.8
20220702203905 98 309 9.0 14.0 0.00 0.00 0.00 32 995.8
20220702203809 98 318 12.0 14.0 0.00 0.00 0.00 32 995.8
20220702203705 98 323 14.0 14.0 0.00 0.00 0.00 31 995.8
20220702203605 98 331 11.0 14.0 0.00 0.00 0.00 32 995.9
20220702203505 98 321 10.0 14.0 0.00 0.00 0.00 32 996.0
20220702203408 98 323 6.0 13.0 0.00 0.00 0.00 31 995.8
20220702203305 98 332 8.0 13.0 0.00 0.00 0.00 31 995.8
20220702203205 98 315 6.0 13.0 0.00 0.00 0.00 30 996.0
20220702203105 98 326 8.0 13.0 0.00 0.00 0.00 31 995.9
20220702203010 98 351 3.0 13.0 0.00 0.00 0.00 31 995.9
20220702202904 98 320 6.0 13.0 0.00 0.00 0.00 31 996.0
20220702202805 98 316 11.0 13.0 0.00 0.00 0.00 33 996.0
20220702202705 98 339 9.0 13.0 0.00 0.00 0.00 33 996.0
20220702202609 98 324 8.0 13.0 0.00 0.00 0.00 32 996.1
20220702202505 98 310 9.0 13.0 0.00 0.00 0.00 31 996.1
20220702202405 98 335 8.0 13.0 0.00 0.00 0.00 32 996.2
20220702202304 98 303 7.0 13.0 0.00 0.00 0.00 33 996.2
20220702202207 98 333 12.0 13.0 0.00 0.00 0.00 33 996.1
20220702202105 98 323 9.0 13.0 0.00 0.00 0.00 32 996.2
20220702202007 98 310 8.0 13.0 0.00 0.00 0.00 32 996.2
20220702201905 98 332 6.0 13.0 0.00 0.00 0.00 32 996.2
20220702201809 98 323 6.0 13.0 0.00 0.00 0.00 32 996.1
20220702201705 98 307 8.0 13.0 0.00 0.00 0.00 33 996.1
20220702201605 98 319 10.0 13.0 0.00 0.00 0.00 32 996.2
20220702201507 98 331 6.0 13.0 0.00 0.00 0.00 33 996.2
20220702201408 98 321 10.0 13.0 0.00 0.00 0.00 33 996.2
20220702201305 98 333 10.0 13.0 0.00 0.00 0.00 33 996.2
20220702201205 97 323 6.0 13.0 0.00 0.00 0.00 33 996.2
20220702201105 97 350 9.0 13.0 0.00 0.00 0.00 33 996.3
20220702201010 97 325 6.0 13.0 0.00 0.00 0.00 34 996.3
20220702200905 98 321 8.0 13.0 0.00 0.00 0.00 34 996.2
20220702200805 98 333 6.0 13.0 0.00 0.00 0.00 34 996.3
20220702200704 98 318 8.0 13.0 0.00 0.00 0.00 34 996.3
20220702200610 98 309 9.0 12.0 0.00 0.00 0.00 33 996.3
20220702200505 98 329 8.0 14.0 0.00 0.00 0.00 33 996.3
20220702200405 97 328 6.0 15.0 0.00 0.00 0.00 33 996.3
20220702200306 97 320 8.0 15.0 0.00 0.00 0.00 34 996.2
20220702200207 97 345 8.0 15.0 0.00 0.00 0.00 34 996.3
20220702200105 97 320 8.0 15.0 0.00 0.00 0.00 35 996.4
20220702200011 97 325 9.0 15.0 0.00 0.00 0.00 34 996.4
20220702195908 97 321 12.0 15.0 0.00 0.00 0.00 35 996.4
20220702195805 98 320 11.0 15.0 0.00 0.00 0.00 34 996.3
20220702195707 97 324 9.0 15.0 0.00 0.00 0.00 33 996.4
20220702195605 97 313 15.0 15.0 0.00 0.00 0.00 34 996.4
20220702195509 97 301 10.0 14.0 0.00 0.00 0.00 34 996.4
20220702195405 97 313 9.0 14.0 0.00 0.00 0.00 34 996.5
20220702195305 98 338 11.0 14.0 0.00 0.00 0.00 35 996.5
20220702195204 98 304 8.0 14.0 0.00 0.00 0.00 34 996.4
20220702195107 98 327 10.0 14.0 0.00 0.00 0.00 34 996.5
20220702195006 98 299 10.0 14.0 0.00 0.00 0.00 34 996.5
20220702194905 98 323 9.0 14.0 0.00 0.00 0.00 34 996.6
20220702194805 98 342 8.0 14.0 0.00 0.00 0.00 33 996.5
20220702194711 98 325 5.0 14.0 0.00 0.00 0.00 33 996.5
20220702194605 98 322 9.0 14.0 0.00 0.00 0.00 34 996.5
20220702194505 98 321 9.0 14.0 0.00 0.00 0.00 34 996.5
20220702194407 98 312 9.0 14.0 0.00 0.00 0.00 33 996.5
20220702194305 98 324 9.0 14.0 0.00 0.00 0.00 33 996.5
20220702194205 97 332 10.0 14.0 0.00 0.00 0.00 34 996.6
20220702194105 97 296 14.0 14.0 0.00 0.00 0.00 34 996.6
20220702194010 97 323 9.0 14.0 0.00 0.00 0.00 33 996.5
20220702193905 97 327 6.0 14.0 0.00 0.00 0.00 34 996.6
20220702193805 97 313 6.0 14.0 0.00 0.00 0.00 34 996.6
20220702193705 97 313 11.0 14.0 0.00 0.00 0.00 34 996.6
20220702193607 97 327 12.0 14.0 0.00 0.00 0.00 35 996.6
20220702193505 97 322 13.0 14.0 0.00 0.00 0.00 35 996.7
20220702193405 97 321 8.0 14.0 0.00 0.00 0.00 35 996.6
20220702193305 97 320 8.0 14.0 0.00 0.00 0.00 35 996.6
20220702193208 97 326 10.0 14.0 0.00 0.00 0.00 35 996.6
20220702193105 97 302 12.0 14.0 0.00 0.00 0.00 35 996.6
20220702193007 97 321 10.0 14.0 0.00 0.00 0.00 35 996.6
20220702192909 97 321 10.0 14.0 0.00 0.00 0.00 35 996.6
20220702192805 97 302 11.0 14.0 0.00 0.00 0.00 36 996.6
20220702192706 97 327 9.0 13.0 0.00 0.00 0.00 36 996.7
20220702192608 96 324 4.0 13.0 0.00 0.00 0.00 36 996.6
20220702192505 96 336 8.0 13.0 0.00 0.00 0.00 37 996.6
20220702192405 96 319 10.0 13.0 0.00 0.00 0.00 37 996.7
20220702192305 96 301 8.0 13.0 0.00 0.00 0.00 39 996.7
20220702192207 96 316 6.0 13.0 0.00 0.00 0.00 39 996.7
20220702192105 96 311 9.0 13.0 0.00 0.00 0.00 40 996.7
20220702192008 96 325 8.0 13.0 0.00 0.00 0.00 41 996.7
20220702191904 96 321 10.0 13.0 0.00 0.00 0.00 40 996.7
20220702191807 96 331 11.0 13.0 0.00 0.00 0.00 40 996.7
20220702191706 96 322 10.0 13.0 0.00 0.00 0.00 40 996.7
20220702191606 96 333 11.0 12.0 0.00 0.00 0.00 40 996.7
20220702191505 97 314 8.0 13.0 0.00 0.00 0.00 40 996.7
20220702191408 97 319 8.0 13.0 0.00 0.00 0.00 39 996.7
20220702191305 97 316 12.0 13.0 0.00 0.00 0.00 40 996.7
20220702191205 97 341 10.0 13.0 0.00 0.00 0.00 40 996.7
20220702191108 97 315 9.0 13.0 0.00 0.00 0.00 39 996.8
20220702191007 97 321 8.0 13.0 0.00 0.00 0.00 38 996.6
20220702190906 97 300 5.0 13.0 0.00 0.00 0.00 38 996.7
20220702190808 97 331 12.0 13.0 0.00 0.00 0.00 37 996.8
20220702190705 97 319 9.0 13.0 0.00 0.00 0.00 37 996.7
20220702190604 97 319 8.0 13.0 0.00 0.00 0.00 37 996.7
20220702190505 97 316 12.0 13.0 0.00 0.00 0.00 37 996.7
20220702190407 97 312 9.0 13.0 0.00 0.00 0.00 36 996.7
20220702190305 97 322 9.0 13.0 0.00 0.00 0.00 36 996.7
20220702190205 98 325 6.0 13.0 0.00 0.00 0.00 36 996.8
20220702190106 98 331 9.0 13.0 0.00 0.00 0.00 36 996.7
20220702190011 98 329 9.0 13.0 0.00 0.00 0.00 36 996.7
20220702185905 97 327 9.0 14.0 0.00 0.00 0.00 35 996.7
20220702185805 97 340 8.0 14.0 0.00 0.00 0.00 35 996.7
20220702185704 97 317 6.0 14.0 0.00 0.00 0.00 36 996.7
20220702185607 97 320 8.0 14.0 0.00 0.00 0.00 35 996.7
20220702185505 97 315 12.0 14.0 0.00 0.00 0.00 36 996.7
20220702185406 97 319 8.0 14.0 0.00 0.00 0.00 37 996.7
20220702185304 97 321 10.0 14.0 0.00 0.00 0.00 37 996.7
20220702185207 97 315 8.0 14.0 0.00 0.00 0.00 36 996.8
20220702185105 97 330 13.0 14.0 0.00 0.00 0.00 36 996.8
20220702185007 97 334 10.0 14.0 0.00 0.00 0.00 36 996.8
20220702184907 97 312 9.0 14.0 0.00 0.00 0.00 36 996.8
20220702184807 97 339 10.0 14.0 0.00 0.00 0.00 36 996.8
20220702184704 97 309 8.0 14.0 0.00 0.00 0.00 37 996.8
20220702184606 97 317 6.0 14.0 0.00 0.00 0.00 37 996.8
20220702184506 98 355 10.0 14.0 0.00 0.00 0.00 37 996.8
20220702184407 98 338 6.0 14.0 0.00 0.00 0.00 36 996.8
20220702184305 97 319 9.0 14.0 0.00 0.00 0.00 36 996.8
20220702184204 98 340 10.0 14.0 0.00 0.00 0.00 37 996.8
20220702184105 98 319 10.0 14.0 0.00 0.00 0.00 37 996.8
20220702184009 98 318 11.0 14.0 0.00 0.00 0.00 37 996.8
20220702183905 98 336 10.0 14.0 0.00 0.00 0.00 37 996.8
20220702183805 98 317 10.0 13.0 0.00 0.00 0.00 37 996.8
20220702183705 98 320 4.0 13.0 0.00 0.00 0.00 38 996.7
20220702183608 98 319 6.0 13.0 0.00 0.00 0.00 37 996.7
20220702183505 98 333 8.0 13.0 0.00 0.00 0.00 37 996.7
20220702183405 98 302 9.0 13.0 0.00 0.00 0.00 37 996.7
20220702183304 98 307 8.0 13.0 0.00 0.00 0.00 37 996.7
20220702183208 98 321 6.0 13.0 0.00 0.00 0.00 37 996.7
20220702183106 98 329 8.0 13.0 0.00 0.00 0.00 37 996.7
20220702183008 97 310 7.0 13.0 0.00 0.00 0.00 36 996.7
20220702182904 98 315 10.0 13.0 0.00 0.00 0.00 36 996.6
20220702182809 97 324 8.0 13.0 0.00 0.00 0.00 37 996.7
20220702182707 97 355 11.0 14.0 0.00 0.00 0.00 38 996.7
20220702182604 97 326 6.0 14.0 0.00 0.00 0.00 37 996.7
20220702182507 97 313 8.0 14.0 0.00 0.00 0.00 38 996.6
20220702182406 98 308 7.0 14.0 0.00 0.00 0.00 39 996.6
20220702182307 98 347 3.0 14.0 0.00 0.00 0.00 39 996.6
20220702182204 98 322 4.0 14.0 0.00 0.00 0.00 38 996.6
20220702182105 98 330 5.0 15.0 0.00 0.00 0.00 38 996.7
20220702182008 98 321 11.0 15.0 0.00 0.00 0.00 38 996.7
20220702181908 98 349 5.0 15.0 0.00 0.00 0.00 38 996.6
20220702181805 99 316 3.0 15.0 0.00 0.00 0.00 38 996.6
20220702181705 99 320 5.0 15.0 0.00 0.00 0.00 38 996.6
20220702181604 99 311 5.0 15.0 0.00 0.00 0.00 37 996.6
20220702181508 99 339 4.0 16.0 0.00 0.00 0.00 35 996.6
20220702181404 99 309 8.0 16.0 0.00 0.00 0.00 33 996.5
20220702181304 99 330 10.0 18.0 0.00 0.00 0.00 33 996.5
20220702181208 99 298 11.0 18.0 0.00 0.00 0.00 33 996.4
20220702181105 99 323 10.0 18.0 0.00 0.00 0.00 33 996.5
20220702181006 99 337 11.0 18.0 0.00 0.00 0.00 32 996.5
20220702180904 99 342 10.0 18.0 0.00 0.00 0.00 32 996.5
20220702180807 99 321 8.0 18.0 0.00 0.00 0.00 32 996.5
20220702180704 99 321 13.0 18.0 0.00 0.00 0.00 31 996.5
20220702180605 99 333 14.0 18.0 0.00 0.00 0.00 31 996.6
20220702180505 99 336 11.0 18.0 0.00 0.00 0.00 32 996.5
20220702180407 100 328 9.0 18.0 0.00 0.00 0.00 32 996.6
20220702180305 100 329 6.0 18.0 0.00 0.00 0.00 30 996.5
20220702180205 100 323 14.0 18.0 0.00 0.00 0.00 31 996.5
20220702180105 100 339 10.0 18.0 0.00 0.00 0.00 31 996.5